SAA281 YPPH-FAOR

Flight info

Callsign SAA281
Flight time 10h 28m
Altitude 34000
Route OPEGA DCT 33S108E 35S101E 36S095E/N0462F360 37S088E 38S082E DCT SUNKI UT451 UPNEK/N0473F380 UT451 RAXES DCT 35S051E 33S045E 31S040E DCT EGSOX Q21 ALENI UZ9 UNPOM UNPOM1A
Aircraft A343/H-SDE2E3FGHIJ4J5M1RWXY/LB1D1

Departure

Time 2026-05-03 23:38
Airport Perth International Airport (YPPH)

Arrival

Time 2026-05-04 10:06
Airport O.R. Tambo International Airport (FAOR)
Time Latitude Longitude Altitude Speed Heading
2026-05-03 23:05 -31.94009 115.97377 72 ft 0 kts 165°
2026-05-03 23:23 -31.94008 115.97377 71 ft 2 kts 165°
2026-05-03 23:23 -31.93983 115.97371 64 ft 4 kts 178°
2026-05-03 23:24 -31.93956 115.97374 63 ft 4 kts 195°
2026-05-03 23:24 -31.93932 115.97386 63 ft 4 kts 219°
2026-05-03 23:24 -31.93917 115.97408 61 ft 4 kts 267°
2026-05-03 23:24 -31.93917 115.97414 61 ft 0 kts 276°
2026-05-03 23:30 -31.93916 115.97408 61 ft 2 kts 276°
2026-05-03 23:30 -31.93914 115.97380 61 ft 5 kts 276°
2026-05-03 23:30 -31.93917 115.97330 61 ft 8 kts 258°
2026-05-03 23:31 -31.93942 115.97263 68 ft 10 kts 243°
2026-05-03 23:31 -31.93962 115.97174 65 ft 12 kts 273°
2026-05-03 23:31 -31.93940 115.97071 67 ft 14 kts 284°
2026-05-03 23:31 -31.93914 115.96953 63 ft 16 kts 283°
2026-05-03 23:32 -31.93981 115.96871 64 ft 16 kts 198°
2026-05-03 23:32 -31.94096 115.96837 65 ft 18 kts 194°
2026-05-03 23:32 -31.94226 115.96798 63 ft 20 kts 194°
2026-05-03 23:32 -31.94368 115.96755 65 ft 22 kts 194°
2026-05-03 23:33 -31.94524 115.96707 66 ft 24 kts 195°
2026-05-03 23:33 -31.94689 115.96664 66 ft 24 kts 192°
2026-05-03 23:33 -31.94844 115.96619 66 ft 22 kts 194°
2026-05-03 23:33 -31.94989 115.96575 61 ft 21 kts 194°
2026-05-03 23:34 -31.95128 115.96534 66 ft 20 kts 192°
2026-05-03 23:34 -31.95261 115.96498 63 ft 19 kts 194°
2026-05-03 23:34 -31.95384 115.96461 64 ft 18 kts 194°
2026-05-03 23:34 -31.95504 115.96426 63 ft 17 kts 193°
2026-05-03 23:35 -31.95617 115.96394 63 ft 16 kts 194°
2026-05-03 23:35 -31.95729 115.96361 67 ft 17 kts 194°
2026-05-03 23:35 -31.95852 115.96326 67 ft 19 kts 193°
2026-05-03 23:35 -31.95914 115.96219 65 ft 18 kts 276°
2026-05-03 23:36 -31.95887 115.96076 63 ft 18 kts 283°
2026-05-03 23:36 -31.95839 115.95982 63 ft 6 kts 353°
2026-05-03 23:36 -31.95805 115.95989 64 ft 0 kts 14°
2026-05-03 23:37 -31.95741 115.96008 66 ft 33 kts 14°
2026-05-03 23:37 -31.95337 115.96126 66 ft 85 kts 13°
2026-05-03 23:37 -31.94618 115.96335 69 ft 127 kts 14°
2026-05-03 23:37 -31.93638 115.96620 104 ft 160 kts 16°
2026-05-03 23:38 -31.92564 115.96920 568 ft 159 kts 15°
2026-05-03 23:38 -31.91483 115.97248 1020 ft 162 kts 17°
2026-05-03 23:38 -31.90386 115.97624 1413 ft 172 kts 21°
2026-05-03 23:38 -31.89168 115.98033 1593 ft 190 kts 16°
2026-05-03 23:39 -31.87825 115.98095 1990 ft 202 kts 352°
2026-05-03 23:39 -31.86625 115.97186 2396 ft 219 kts 305°
2026-05-03 23:39 -31.86033 115.95478 2703 ft 238 kts 281°
2026-05-03 23:39 -31.85806 115.93469 2990 ft 256 kts 278°
2026-05-03 23:40 -31.85592 115.91348 3459 ft 267 kts 278°
2026-05-03 23:40 -31.85322 115.89147 3993 ft 275 kts 280°
2026-05-03 23:40 -31.84985 115.86898 4553 ft 283 kts 281°
2026-05-03 23:40 -31.84671 115.84611 5274 ft 283 kts 278°
2026-05-03 23:41 -31.84398 115.82307 5908 ft 287 kts 278°
2026-05-03 23:41 -31.84115 115.79958 6491 ft 292 kts 278°
2026-05-03 23:41 -31.83821 115.77572 7071 ft 297 kts 278°
2026-05-03 23:41 -31.83518 115.75156 7652 ft 300 kts 278°
2026-05-03 23:42 -31.83211 115.72719 8268 ft 302 kts 278°
2026-05-03 23:42 -31.82900 115.70274 8850 ft 305 kts 278°
2026-05-03 23:42 -31.82612 115.67782 9438 ft 308 kts 274°
2026-05-03 23:42 -31.82834 115.65301 9986 ft 307 kts 250°
2026-05-03 23:43 -31.83593 115.62935 10405 ft 315 kts 245°
2026-05-03 23:43 -31.84433 115.60539 10645 ft 328 kts 245°
2026-05-03 23:43 -31.85324 115.57977 10914 ft 339 kts 245°
2026-05-03 23:43 -31.86215 115.55355 11196 ft 351 kts 248°
2026-05-03 23:44 -31.86738 115.52491 11428 ft 365 kts 268°
2026-05-03 23:44 -31.86387 115.49521 11657 ft 378 kts 283°
2026-05-03 23:44 -31.85682 115.46507 11992 ft 386 kts 285°
2026-05-03 23:44 -31.84946 115.43464 12439 ft 390 kts 285°
2026-05-03 23:45 -31.84206 115.40362 12865 ft 395 kts 285°
2026-05-03 23:45 -31.83472 115.37253 13372 ft 397 kts 284°
2026-05-03 23:45 -31.82724 115.34090 13717 ft 405 kts 284°
2026-05-03 23:45 -31.81972 115.30893 14194 ft 408 kts 284°
2026-05-03 23:46 -31.81214 115.27672 14702 ft 407 kts 284°
2026-05-03 23:46 -31.80518 115.24443 15200 ft 409 kts 280°
2026-05-03 23:46 -31.79985 115.21141 15524 ft 415 kts 278°
2026-05-03 23:46 -31.79466 115.17780 16038 ft 415 kts 279°
2026-05-03 23:47 -31.78924 115.14461 16579 ft 416 kts 279°
2026-05-03 23:47 -31.78369 115.11097 16961 ft 420 kts 279°
2026-05-03 23:47 -31.77806 115.07727 17489 ft 420 kts 280°
2026-05-03 23:47 -31.77235 115.04366 18005 ft 420 kts 280°
2026-05-03 23:48 -31.76661 115.00983 18384 ft 425 kts 279°
2026-05-03 23:48 -31.76074 114.97556 18706 ft 430 kts 280°
2026-05-03 23:48 -31.75482 114.94110 19149 ft 430 kts 280°
2026-05-03 23:48 -31.74896 114.90676 19570 ft 431 kts 279°
2026-05-03 23:49 -31.74298 114.87200 19893 ft 435 kts 279°
2026-05-03 23:49 -31.73698 114.83713 20322 ft 435 kts 279°
2026-05-03 23:49 -31.73301 114.81395 20608 ft 436 kts 279°
2026-05-03 23:49 -31.72705 114.77922 21036 ft 436 kts 280°
2026-05-03 23:50 -31.72095 114.74405 21412 ft 439 kts 279°
2026-05-03 23:50 -31.71491 114.70895 21806 ft 440 kts 279°
2026-05-03 23:50 -31.70877 114.67362 22188 ft 441 kts 279°
2026-05-03 23:50 -31.70265 114.63815 22500 ft 444 kts 280°
2026-05-03 23:51 -31.69637 114.60244 22838 ft 447 kts 279°
2026-05-03 23:51 -31.69006 114.56666 23212 ft 448 kts 280°
2026-05-03 23:51 -31.68382 114.53079 23570 ft 450 kts 279°
2026-05-03 23:51 -31.67755 114.49479 23926 ft 451 kts 279°
2026-05-03 23:52 -31.67117 114.45854 24217 ft 453 kts 279°
2026-05-03 23:52 -31.66486 114.42226 24512 ft 454 kts 280°
2026-05-03 23:52 -31.65846 114.38585 24791 ft 455 kts 279°
2026-05-03 23:52 -31.65205 114.34953 25121 ft 455 kts 280°
2026-05-03 23:53 -31.64563 114.31304 25357 ft 458 kts 281°
2026-05-03 23:53 -31.63915 114.27644 25645 ft 459 kts 281°
2026-05-03 23:53 -31.63264 114.23988 25930 ft 459 kts 280°
2026-05-03 23:53 -31.62615 114.20351 26235 ft 460 kts 281°
2026-05-03 23:54 -31.61958 114.16657 26439 ft 462 kts 280°
2026-05-03 23:54 -31.61301 114.12977 26760 ft 462 kts 281°
2026-05-03 23:54 -31.60640 114.09273 27048 ft 462 kts 281°
2026-05-03 23:54 -31.59979 114.05579 27299 ft 464 kts 281°
2026-05-03 23:55 -31.59311 114.01865 27478 ft 466 kts 281°
2026-05-03 23:55 -31.58645 113.98148 27738 ft 467 kts 282°
2026-05-03 23:55 -31.57979 113.94409 27862 ft 471 kts 282°
2026-05-03 23:55 -31.57304 113.90636 28020 ft 473 kts 282°
2026-05-03 23:56 -31.56624 113.86861 28398 ft 471 kts 282°
2026-05-03 23:56 -31.55945 113.83106 28719 ft 470 kts 282°
2026-05-03 23:56 -31.54575 113.75566 29187 ft 471 kts 282°
2026-05-03 23:57 -31.53895 113.71797 29416 ft 472 kts 282°
2026-05-03 23:57 -31.53213 113.68036 29599 ft 474 kts 283°
2026-05-03 23:57 -31.52524 113.64289 29739 ft 476 kts 283°
2026-05-03 23:57 -31.51846 113.60522 30232 ft 471 kts 282°
2026-05-03 23:58 -31.51151 113.56714 30416 ft 472 kts 283°
2026-05-03 23:58 -31.50461 113.52953 30510 ft 475 kts 283°
2026-05-03 23:58 -31.49767 113.49177 30763 ft 472 kts 283°
2026-05-03 23:58 -31.49080 113.45446 31181 ft 467 kts 283°
2026-05-03 23:59 -31.48565 113.41668 31287 ft 471 kts 276°
2026-05-03 23:59 -31.48529 113.37844 31586 ft 470 kts 267°
2026-05-03 23:59 -31.49012 113.34052 31709 ft 473 kts 258°
2026-05-03 23:59 -31.49954 113.30390 31858 ft 475 kts 253°
2026-05-04 00:00 -31.51059 113.26698 32116 ft 474 kts 252°
2026-05-04 00:00 -31.52176 113.23116 32293 ft 474 kts 251°
2026-05-04 00:00 -31.53310 113.19501 32494 ft 473 kts 252°
2026-05-04 00:00 -31.54445 113.15888 32680 ft 472 kts 252°
2026-05-04 00:01 -31.55573 113.12273 32884 ft 471 kts 252°
2026-05-04 00:01 -31.56688 113.08662 33046 ft 471 kts 252°
2026-05-04 00:01 -31.57803 113.05038 33218 ft 471 kts 252°
2026-05-04 00:01 -31.58910 113.01425 33402 ft 470 kts 252°
2026-05-04 00:02 -31.60012 112.97821 33564 ft 470 kts 252°
2026-05-04 00:02 -31.61116 112.94200 33765 ft 469 kts 252°
2026-05-04 00:02 -31.62211 112.90607 33890 ft 469 kts 252°
2026-05-04 00:02 -31.63306 112.87010 34101 ft 468 kts 252°
2026-05-04 00:03 -31.64403 112.83402 34228 ft 468 kts 252°
2026-05-04 00:03 -31.65493 112.79811 34335 ft 467 kts 252°
2026-05-04 00:03 -31.67640 112.72738 34349 ft 452 kts 252°
2026-05-04 00:04 -31.69721 112.65862 34364 ft 450 kts 253°
2026-05-04 00:04 -31.71813 112.58924 34356 ft 450 kts 253°
2026-05-04 00:05 -31.73902 112.51984 34353 ft 451 kts 252°
2026-05-04 00:05 -31.75989 112.45040 34369 ft 451 kts 252°
2026-05-04 00:06 -31.78070 112.38099 34356 ft 450 kts 252°
2026-05-04 00:06 -31.80149 112.31152 34360 ft 450 kts 252°
2026-05-04 00:07 -31.82219 112.24215 34354 ft 450 kts 252°
2026-05-04 00:07 -31.84288 112.17268 34361 ft 450 kts 252°
2026-05-04 00:08 -31.86352 112.10322 34357 ft 450 kts 253°
2026-05-04 00:08 -31.88411 112.03378 34354 ft 449 kts 253°
2026-05-04 00:09 -31.90464 111.96435 34356 ft 449 kts 253°
2026-05-04 00:09 -31.92512 111.89494 34355 ft 449 kts 253°
2026-05-04 00:10 -31.94557 111.82548 34354 ft 449 kts 253°
2026-05-04 00:10 -31.96583 111.75653 34362 ft 448 kts 253°
2026-05-04 00:11 -31.98620 111.68704 34365 ft 448 kts 253°
2026-05-04 00:11 -32.00646 111.61772 34359 ft 448 kts 253°
2026-05-04 00:12 -32.02670 111.54834 34360 ft 448 kts 253°
2026-05-04 00:12 -32.04691 111.47892 34360 ft 448 kts 253°
2026-05-04 00:13 -32.06711 111.40934 34363 ft 448 kts 253°
2026-05-04 00:13 -32.08722 111.33993 34365 ft 447 kts 253°
2026-05-04 00:14 -32.10730 111.27048 34373 ft 448 kts 253°
2026-05-04 00:14 -32.12728 111.20117 34371 ft 448 kts 253°
2026-05-04 00:15 -32.14744 111.13109 34375 ft 448 kts 253°
2026-05-04 00:15 -32.16728 111.06205 34371 ft 447 kts 253°
2026-05-04 00:16 -32.18712 110.99259 34367 ft 447 kts 253°
2026-05-04 00:16 -32.20700 110.92305 34367 ft 447 kts 253°
2026-05-04 00:17 -32.22684 110.85348 34374 ft 447 kts 253°
2026-05-04 00:17 -32.24659 110.78403 34376 ft 446 kts 253°
2026-05-04 00:18 -32.26633 110.71449 34373 ft 446 kts 253°
2026-05-04 00:18 -32.28598 110.64504 34373 ft 445 kts 253°
2026-05-04 00:19 -32.30557 110.57563 34376 ft 445 kts 253°
2026-05-04 00:19 -32.32514 110.50613 34375 ft 445 kts 253°
2026-05-04 00:20 -32.34462 110.43654 34376 ft 445 kts 253°
2026-05-04 00:20 -32.36407 110.36719 34378 ft 444 kts 253°
2026-05-04 00:21 -32.38352 110.29778 34377 ft 444 kts 253°
2026-05-04 00:21 -32.40289 110.22841 34376 ft 444 kts 253°
2026-05-04 00:22 -32.42226 110.15886 34376 ft 444 kts 253°
2026-05-04 00:22 -32.44138 110.08982 34375 ft 443 kts 253°
2026-05-04 00:23 -32.46055 110.02048 34380 ft 443 kts 253°
2026-05-04 00:23 -32.47974 109.95121 34379 ft 443 kts 253°
2026-05-04 00:24 -32.49892 109.88173 34385 ft 443 kts 253°
2026-05-04 00:24 -32.51802 109.81231 34385 ft 443 kts 253°
2026-05-04 00:25 -32.53714 109.74296 34384 ft 443 kts 252°
2026-05-04 00:25 -32.55613 109.67347 34384 ft 443 kts 253°
2026-05-04 00:26 -32.57506 109.60391 34384 ft 443 kts 253°
2026-05-04 00:26 -32.59383 109.53488 34381 ft 443 kts 253°
2026-05-04 00:27 -32.61270 109.46544 34384 ft 443 kts 253°
2026-05-04 00:27 -32.63149 109.39588 34385 ft 441 kts 253°
2026-05-04 00:28 -32.65011 109.32654 34383 ft 441 kts 252°
2026-05-04 00:28 -32.66891 109.25720 34385 ft 441 kts 252°
2026-05-04 00:29 -32.68766 109.18777 34390 ft 441 kts 252°
2026-05-04 00:29 -32.70629 109.11841 34387 ft 441 kts 252°
2026-05-04 00:30 -32.72495 109.04902 34389 ft 440 kts 252°
2026-05-04 00:30 -32.74330 108.97977 34397 ft 440 kts 252°
2026-05-04 00:31 -32.76179 108.91039 34395 ft 440 kts 252°
2026-05-04 00:31 -32.78026 108.84099 34396 ft 441 kts 252°
2026-05-04 00:32 -32.79866 108.77157 34397 ft 440 kts 252°
2026-05-04 00:32 -32.81700 108.70212 34394 ft 440 kts 252°
2026-05-04 00:33 -32.84439 108.59833 34396 ft 440 kts 252°
2026-05-04 00:34 -32.86264 108.52884 34395 ft 440 kts 252°
2026-05-04 00:34 -32.87792 108.47053 34395 ft 440 kts 252°
2026-05-04 00:35 -32.89609 108.40105 34391 ft 440 kts 251°
2026-05-04 00:35 -32.91406 108.33190 34395 ft 440 kts 251°
2026-05-04 00:36 -32.93221 108.26227 34398 ft 440 kts 251°
2026-05-04 00:36 -32.95025 108.19286 34397 ft 440 kts 251°
2026-05-04 00:37 -32.96830 108.12316 34398 ft 440 kts 251°
2026-05-04 00:37 -32.98628 108.05353 34398 ft 440 kts 251°
2026-05-04 00:38 -33.00428 107.98389 34401 ft 440 kts 251°
2026-05-04 00:38 -33.02542 107.91562 34400 ft 439 kts 247°
2026-05-04 00:39 -33.04814 107.84803 34404 ft 439 kts 247°
2026-05-04 00:39 -33.07035 107.78030 34402 ft 439 kts 248°
2026-05-04 00:40 -33.09214 107.71229 34402 ft 439 kts 248°
2026-05-04 00:40 -33.11373 107.64420 34405 ft 439 kts 248°
2026-05-04 00:41 -33.13534 107.57593 34408 ft 439 kts 248°
2026-05-04 00:41 -33.15689 107.50779 34406 ft 439 kts 248°
2026-05-04 00:42 -33.17839 107.43968 34406 ft 439 kts 248°
2026-05-04 00:42 -33.19990 107.37141 34408 ft 439 kts 247°
2026-05-04 00:43 -33.22134 107.30313 34411 ft 439 kts 247°
2026-05-04 00:43 -33.24266 107.23516 34408 ft 439 kts 247°
2026-05-04 00:44 -33.26408 107.16676 34414 ft 439 kts 247°
2026-05-04 00:44 -33.28544 107.09836 34416 ft 440 kts 247°
2026-05-04 00:45 -33.30679 107.02981 34411 ft 440 kts 247°
2026-05-04 00:45 -33.32813 106.96116 34414 ft 440 kts 247°
2026-05-04 00:46 -33.34944 106.89245 34417 ft 440 kts 248°
2026-05-04 00:46 -33.37068 106.82379 34423 ft 440 kts 248°
2026-05-04 00:47 -33.39188 106.75512 34420 ft 440 kts 248°
2026-05-04 00:47 -33.41301 106.68649 34419 ft 440 kts 248°
2026-05-04 00:48 -33.43419 106.61759 34429 ft 440 kts 248°
2026-05-04 00:48 -33.45511 106.54933 34422 ft 440 kts 248°
2026-05-04 00:49 -33.47614 106.48057 34422 ft 440 kts 248°
2026-05-04 00:49 -33.49712 106.41185 34425 ft 440 kts 248°
2026-05-04 00:50 -33.51826 106.34244 34410 ft 440 kts 248°
2026-05-04 00:50 -33.53900 106.27417 34426 ft 439 kts 248°
2026-05-04 00:51 -33.55986 106.20534 34431 ft 439 kts 248°
2026-05-04 00:51 -33.58066 106.13654 34429 ft 439 kts 248°
2026-05-04 00:52 -33.60146 106.06760 34426 ft 439 kts 248°
2026-05-04 00:52 -33.62221 105.99870 34425 ft 439 kts 248°
2026-05-04 00:53 -33.64283 105.92990 34429 ft 438 kts 249°
2026-05-04 00:53 -33.66344 105.86100 34435 ft 438 kts 249°
2026-05-04 00:54 -33.68404 105.79220 34435 ft 438 kts 249°
2026-05-04 00:54 -33.70459 105.72339 34438 ft 438 kts 249°
2026-05-04 00:55 -33.72508 105.65453 34435 ft 438 kts 249°
2026-05-04 00:55 -33.74558 105.58548 34442 ft 438 kts 249°
2026-05-04 00:56 -33.76600 105.51652 34435 ft 438 kts 249°
2026-05-04 00:56 -33.78642 105.44738 34435 ft 438 kts 249°
2026-05-04 00:57 -33.80676 105.37839 34435 ft 438 kts 249°
2026-05-04 00:57 -33.82708 105.30927 34440 ft 438 kts 249°
2026-05-04 00:58 -33.84738 105.24009 34445 ft 439 kts 250°
2026-05-04 00:58 -33.86765 105.17082 34438 ft 439 kts 250°
2026-05-04 00:59 -33.88787 105.10154 34442 ft 439 kts 250°
2026-05-04 00:59 -33.90805 105.03225 34440 ft 439 kts 250°
2026-05-04 01:00 -33.92809 104.96329 34454 ft 439 kts 250°
2026-05-04 01:00 -33.94822 104.89387 34453 ft 439 kts 250°
2026-05-04 01:01 -33.96828 104.82446 34435 ft 439 kts 250°
2026-05-04 01:01 -33.98835 104.75487 34453 ft 440 kts 250°
2026-05-04 01:02 -34.00840 104.68519 34441 ft 440 kts 250°
2026-05-04 01:02 -34.02841 104.61550 34440 ft 440 kts 250°
2026-05-04 01:03 -34.04836 104.54582 34459 ft 440 kts 250°
2026-05-04 01:03 -34.06828 104.47609 34440 ft 440 kts 250°
2026-05-04 01:04 -34.08819 104.40623 34458 ft 440 kts 250°
2026-05-04 01:04 -34.10791 104.33683 34449 ft 440 kts 250°
2026-05-04 01:05 -34.12770 104.26704 34458 ft 440 kts 250°
2026-05-04 01:05 -34.14749 104.19710 34445 ft 440 kts 251°
2026-05-04 01:06 -34.16722 104.12718 34447 ft 440 kts 251°
2026-05-04 01:06 -34.18693 104.05715 34450 ft 442 kts 251°
2026-05-04 01:07 -34.20683 103.98628 34453 ft 448 kts 251°
2026-05-04 01:07 -34.22696 103.91442 34448 ft 455 kts 251°
2026-05-04 01:08 -34.24731 103.84157 34457 ft 460 kts 251°
2026-05-04 01:08 -34.26769 103.76838 34450 ft 458 kts 251°
2026-05-04 01:09 -34.28794 103.69550 34456 ft 457 kts 251°
2026-05-04 01:09 -34.30802 103.62306 34452 ft 457 kts 251°
2026-05-04 01:10 -34.32817 103.55017 34454 ft 457 kts 251°
2026-05-04 01:10 -34.34828 103.47723 34460 ft 457 kts 251°
2026-05-04 01:11 -34.36836 103.40422 34454 ft 457 kts 251°
2026-05-04 01:11 -34.38842 103.33105 34469 ft 457 kts 251°
2026-05-04 01:12 -34.40842 103.25794 34468 ft 457 kts 251°
2026-05-04 01:12 -34.42835 103.18489 34468 ft 457 kts 251°
2026-05-04 01:13 -34.44828 103.11163 34457 ft 457 kts 251°
2026-05-04 01:13 -34.46816 103.03835 34469 ft 458 kts 252°
2026-05-04 01:14 -34.48802 102.96498 34458 ft 458 kts 252°
2026-05-04 01:14 -34.50784 102.89155 34473 ft 458 kts 252°
2026-05-04 01:15 -34.52758 102.81821 34458 ft 458 kts 252°
2026-05-04 01:15 -34.54732 102.74467 34452 ft 458 kts 252°
2026-05-04 01:16 -34.56690 102.67152 34456 ft 458 kts 252°
2026-05-04 01:16 -34.58655 102.59792 34459 ft 459 kts 252°
2026-05-04 01:17 -34.60628 102.52384 34465 ft 458 kts 252°
2026-05-04 01:17 -34.62567 102.45080 34459 ft 457 kts 252°
2026-05-04 01:18 -34.64509 102.37748 34460 ft 457 kts 252°
2026-05-04 01:18 -34.66449 102.30401 34459 ft 457 kts 252°
2026-05-04 01:19 -34.68060 102.24285 34460 ft 457 kts 252°
2026-05-04 01:19 -34.70004 102.16889 34457 ft 457 kts 252°
2026-05-04 01:20 -34.71919 102.09579 34458 ft 456 kts 252°
2026-05-04 01:20 -34.73843 102.02219 34458 ft 457 kts 252°
2026-05-04 01:21 -34.75762 101.94855 34454 ft 457 kts 252°
2026-05-04 01:21 -34.77681 101.87471 34456 ft 457 kts 252°
2026-05-04 01:22 -34.79590 101.80104 34461 ft 457 kts 252°
2026-05-04 01:22 -34.81497 101.72725 34475 ft 457 kts 252°
2026-05-04 01:23 -34.83403 101.65328 34470 ft 457 kts 252°
2026-05-04 01:23 -34.85302 101.57940 34466 ft 457 kts 252°
2026-05-04 01:24 -34.87191 101.50569 34464 ft 457 kts 252°
2026-05-04 01:24 -34.89084 101.43162 34467 ft 457 kts 252°
2026-05-04 01:25 -34.90966 101.35775 34470 ft 457 kts 252°
2026-05-04 01:25 -34.92846 101.28376 34463 ft 457 kts 253°
2026-05-04 01:26 -34.94722 101.20970 34467 ft 458 kts 253°
2026-05-04 01:26 -34.96597 101.13550 34466 ft 458 kts 253°
2026-05-04 01:27 -34.98454 101.06179 34466 ft 458 kts 253°
2026-05-04 01:27 -35.00326 100.98721 34478 ft 458 kts 253°
2026-05-04 01:28 -35.01869 100.91246 34465 ft 456 kts 257°
2026-05-04 01:28 -35.03218 100.83693 34465 ft 456 kts 257°
2026-05-04 01:29 -35.04613 100.76103 34469 ft 456 kts 257°
2026-05-04 01:29 -35.06033 100.68611 34470 ft 456 kts 257°
2026-05-04 01:30 -35.07472 100.61072 34473 ft 456 kts 257°
2026-05-04 01:30 -35.08908 100.53524 34468 ft 456 kts 257°
2026-05-04 01:31 -35.10334 100.45990 34473 ft 456 kts 257°
2026-05-04 01:31 -35.11757 100.38439 34470 ft 456 kts 257°
2026-05-04 01:32 -35.13174 100.30887 34476 ft 456 kts 257°
2026-05-04 01:32 -35.14589 100.23323 34467 ft 456 kts 257°
2026-05-04 01:33 -35.15997 100.15765 34473 ft 456 kts 257°
2026-05-04 01:33 -35.17402 100.08199 34467 ft 457 kts 257°
2026-05-04 01:34 -35.18801 100.00638 34465 ft 457 kts 257°
2026-05-04 01:34 -35.20201 99.93044 34465 ft 457 kts 257°
2026-05-04 01:35 -35.21583 99.85514 34468 ft 457 kts 257°
2026-05-04 01:35 -35.22970 99.77932 34466 ft 457 kts 257°
2026-05-04 01:36 -35.24355 99.70333 34465 ft 458 kts 257°
2026-05-04 01:36 -35.25738 99.62719 34464 ft 457 kts 257°
2026-05-04 01:37 -35.27113 99.55112 34470 ft 457 kts 257°
2026-05-04 01:37 -35.28483 99.47511 34467 ft 458 kts 257°
2026-05-04 01:38 -35.29841 99.39945 34465 ft 458 kts 257°
2026-05-04 01:38 -35.31204 99.32323 34468 ft 458 kts 258°
2026-05-04 01:39 -35.32560 99.24711 34463 ft 458 kts 258°
2026-05-04 01:39 -35.33912 99.17093 34467 ft 458 kts 258°
2026-05-04 01:40 -35.35260 99.09463 34465 ft 458 kts 258°
2026-05-04 01:40 -35.36596 99.01876 34466 ft 459 kts 258°
2026-05-04 01:41 -35.37938 98.94227 34471 ft 459 kts 258°
2026-05-04 01:41 -35.39275 98.86574 34464 ft 459 kts 258°
2026-05-04 01:42 -35.40605 98.78932 34467 ft 459 kts 258°
2026-05-04 01:42 -35.41932 98.71276 34468 ft 459 kts 258°
2026-05-04 01:43 -35.43254 98.63618 34469 ft 459 kts 258°
2026-05-04 01:43 -35.44575 98.55936 34472 ft 459 kts 258°
2026-05-04 01:44 -35.45888 98.48268 34470 ft 459 kts 258°
2026-05-04 01:44 -35.47184 98.40665 34470 ft 457 kts 258°
2026-05-04 01:45 -35.48482 98.33030 34464 ft 457 kts 258°
2026-05-04 01:45 -35.50418 98.21574 34467 ft 457 kts 258°
2026-05-04 01:46 -35.51703 98.13934 34459 ft 457 kts 258°
2026-05-04 01:46 -35.52984 98.06287 34462 ft 457 kts 258°
2026-05-04 01:47 -35.54259 97.98643 34458 ft 457 kts 258°
2026-05-04 01:47 -35.55531 97.90985 34461 ft 458 kts 258°
2026-05-04 01:48 -35.56799 97.83317 34459 ft 458 kts 259°
2026-05-04 01:48 -35.58063 97.75650 34462 ft 458 kts 259°
2026-05-04 01:49 -35.59312 97.68032 34459 ft 458 kts 259°
2026-05-04 01:49 -35.60567 97.60353 34459 ft 458 kts 259°
2026-05-04 01:50 -35.61816 97.52674 34455 ft 458 kts 259°
2026-05-04 01:50 -35.63060 97.45000 34461 ft 458 kts 259°
2026-05-04 01:51 -35.64299 97.37321 34468 ft 458 kts 259°
2026-05-04 01:51 -35.65534 97.29630 34459 ft 458 kts 259°
2026-05-04 01:52 -35.66762 97.21953 34467 ft 458 kts 259°
2026-05-04 01:52 -35.67987 97.14262 34467 ft 458 kts 259°
2026-05-04 01:53 -35.69207 97.06568 34460 ft 458 kts 259°
2026-05-04 01:53 -35.70419 96.98894 34453 ft 458 kts 259°
2026-05-04 01:54 -35.71630 96.91190 34450 ft 458 kts 259°
2026-05-04 01:54 -35.72835 96.83497 34450 ft 458 kts 259°
2026-05-04 01:55 -35.74035 96.75796 34462 ft 458 kts 259°
2026-05-04 01:55 -35.75231 96.68088 34455 ft 458 kts 259°
2026-05-04 01:56 -35.76421 96.60384 34455 ft 458 kts 259°
2026-05-04 01:56 -35.77600 96.52721 34456 ft 458 kts 259°
2026-05-04 01:57 -35.78781 96.45009 34450 ft 458 kts 259°
2026-05-04 01:57 -35.79959 96.37278 34453 ft 459 kts 259°
2026-05-04 01:58 -35.81129 96.29567 34458 ft 458 kts 259°
2026-05-04 01:58 -35.82297 96.21838 34453 ft 458 kts 259°
2026-05-04 01:59 -35.83458 96.14116 34450 ft 458 kts 259°
2026-05-04 01:59 -35.84615 96.06390 34452 ft 458 kts 259°
2026-05-04 02:00 -35.85767 95.98656 34460 ft 458 kts 259°
2026-05-04 02:00 -35.86908 95.90968 34445 ft 458 kts 259°
2026-05-04 02:01 -35.88051 95.83224 34444 ft 458 kts 259°
2026-05-04 02:01 -35.89188 95.75492 34443 ft 459 kts 260°
2026-05-04 02:02 -35.90320 95.67748 34443 ft 459 kts 260°
2026-05-04 02:02 -35.91448 95.60006 34440 ft 459 kts 260°
2026-05-04 02:03 -35.92571 95.52256 34439 ft 459 kts 260°
2026-05-04 02:03 -35.93688 95.44510 34446 ft 459 kts 260°
2026-05-04 02:04 -35.94616 95.38051 34439 ft 459 kts 260°
2026-05-04 02:04 -35.95725 95.30295 34439 ft 459 kts 260°
2026-05-04 02:05 -35.96826 95.22553 34439 ft 458 kts 260°
2026-05-04 02:05 -35.97924 95.14806 34435 ft 458 kts 260°
2026-05-04 02:06 -35.99015 95.07062 34444 ft 458 kts 260°
2026-05-04 02:06 -36.00102 94.99312 34433 ft 458 kts 260°
2026-05-04 02:07 -36.01355 94.91605 34433 ft 457 kts 258°
2026-05-04 02:07 -36.02743 94.83951 34430 ft 457 kts 257°
2026-05-04 02:08 -36.04097 94.76338 34432 ft 457 kts 258°
2026-05-04 02:08 -36.05425 94.68656 34424 ft 457 kts 258°
2026-05-04 02:09 -36.06735 94.60982 34425 ft 457 kts 258°
2026-05-04 02:09 -36.08042 94.53295 34429 ft 457 kts 258°
2026-05-04 02:10 -36.09346 94.45596 34433 ft 457 kts 258°
2026-05-04 02:10 -36.10648 94.37890 34428 ft 457 kts 258°
2026-05-04 02:11 -36.11944 94.30183 34425 ft 457 kts 258°
2026-05-04 02:11 -36.13234 94.22482 34429 ft 457 kts 258°
2026-05-04 02:12 -36.14521 94.14763 34423 ft 458 kts 259°
2026-05-04 02:12 -36.15805 94.07036 34418 ft 459 kts 259°
2026-05-04 02:13 -36.17076 93.99354 34418 ft 459 kts 259°
2026-05-04 02:13 -36.18349 93.91622 34419 ft 459 kts 259°
2026-05-04 02:14 -36.19619 93.83877 34415 ft 457 kts 259°
2026-05-04 02:14 -36.20878 93.76166 34412 ft 457 kts 259°
2026-05-04 02:15 -36.22132 93.68459 34414 ft 457 kts 259°
2026-05-04 02:15 -36.23382 93.60741 34413 ft 457 kts 259°
2026-05-04 02:16 -36.24623 93.53039 34414 ft 457 kts 259°
2026-05-04 02:16 -36.25863 93.45318 34416 ft 457 kts 259°
2026-05-04 02:17 -36.27098 93.37591 34409 ft 457 kts 259°
2026-05-04 02:17 -36.28326 93.29877 34413 ft 456 kts 259°
2026-05-04 02:18 -36.29546 93.22173 34413 ft 456 kts 259°
2026-05-04 02:18 -36.30767 93.14437 34403 ft 456 kts 259°
2026-05-04 02:19 -36.31971 93.06771 34409 ft 456 kts 259°
2026-05-04 02:19 -36.33180 92.99042 34402 ft 457 kts 259°
2026-05-04 02:20 -36.34386 92.91293 34403 ft 457 kts 259°
2026-05-04 02:20 -36.35588 92.83543 34400 ft 457 kts 259°
2026-05-04 02:21 -36.36783 92.75795 34399 ft 457 kts 259°
2026-05-04 02:21 -36.37973 92.68050 34398 ft 457 kts 260°
2026-05-04 02:22 -36.39159 92.60296 34399 ft 458 kts 260°
2026-05-04 02:22 -36.40342 92.52521 34395 ft 459 kts 260°
2026-05-04 02:23 -36.41522 92.44735 34395 ft 458 kts 260°
2026-05-04 02:23 -36.42688 92.37006 34389 ft 458 kts 260°
2026-05-04 02:24 -36.43856 92.29226 34396 ft 458 kts 260°
2026-05-04 02:24 -36.45020 92.21437 34390 ft 459 kts 260°
2026-05-04 02:25 -36.46182 92.13626 34387 ft 459 kts 260°
2026-05-04 02:25 -36.47339 92.05814 34387 ft 459 kts 260°
2026-05-04 02:26 -36.48491 91.97999 34387 ft 459 kts 260°
2026-05-04 02:26 -36.49635 91.90196 34386 ft 459 kts 260°
2026-05-04 02:27 -36.50775 91.82387 34385 ft 459 kts 260°
2026-05-04 02:27 -36.51909 91.74579 34385 ft 459 kts 260°
2026-05-04 02:28 -36.53037 91.66778 34381 ft 459 kts 260°
2026-05-04 02:28 -36.54161 91.58968 34379 ft 459 kts 260°
2026-05-04 02:29 -36.55278 91.51169 34381 ft 459 kts 261°
2026-05-04 02:29 -36.56388 91.43384 34375 ft 459 kts 261°
2026-05-04 02:30 -36.57496 91.35571 34373 ft 459 kts 261°
2026-05-04 02:30 -36.58603 91.27725 34372 ft 459 kts 261°
2026-05-04 02:31 -36.59703 91.19888 34369 ft 459 kts 261°
2026-05-04 02:31 -36.60796 91.12067 34368 ft 459 kts 261°
2026-05-04 02:32 -36.61880 91.04270 34367 ft 460 kts 261°
2026-05-04 02:32 -36.62973 90.96375 34366 ft 460 kts 261°
2026-05-04 02:33 -36.64045 90.88588 34360 ft 460 kts 261°
2026-05-04 02:33 -36.65121 90.80729 34361 ft 460 kts 261°
2026-05-04 02:34 -36.66192 90.72870 34355 ft 460 kts 261°
2026-05-04 02:34 -36.67258 90.65005 34356 ft 461 kts 261°
2026-05-04 02:35 -36.68322 90.57118 34353 ft 461 kts 261°
2026-05-04 02:35 -36.69379 90.49244 34350 ft 461 kts 261°
2026-05-04 02:36 -36.70430 90.41371 34348 ft 461 kts 261°
2026-05-04 02:36 -36.71480 90.33483 34350 ft 462 kts 261°
2026-05-04 02:37 -36.72522 90.25599 34346 ft 461 kts 261°
2026-05-04 02:37 -36.73556 90.17704 34344 ft 461 kts 261°
2026-05-04 02:38 -36.74582 90.09813 34350 ft 461 kts 261°
2026-05-04 02:38 -36.75611 90.01929 34339 ft 461 kts 261°
2026-05-04 02:39 -36.76628 89.94002 34337 ft 463 kts 261°
2026-05-04 02:39 -36.77652 89.86052 34339 ft 465 kts 261°
2026-05-04 02:40 -36.78666 89.78102 34338 ft 464 kts 261°
2026-05-04 02:40 -36.79684 89.70138 34337 ft 464 kts 261°
2026-05-04 02:41 -36.80690 89.62230 34337 ft 465 kts 261°
2026-05-04 02:41 -36.81701 89.54199 34335 ft 465 kts 261°
2026-05-04 02:42 -36.82693 89.46283 34333 ft 464 kts 261°
2026-05-04 02:42 -36.83673 89.38328 34329 ft 465 kts 261°
2026-05-04 02:43 -36.84662 89.30351 34328 ft 465 kts 261°
2026-05-04 02:43 -36.85648 89.22371 34325 ft 464 kts 261°
2026-05-04 02:44 -36.86615 89.14400 34327 ft 465 kts 262°
2026-05-04 02:44 -36.87579 89.06434 34319 ft 464 kts 261°
2026-05-04 02:45 -36.88544 88.98448 34321 ft 464 kts 261°
2026-05-04 02:45 -36.89497 88.90468 34322 ft 465 kts 262°
2026-05-04 02:46 -36.90450 88.82528 34320 ft 465 kts 262°
2026-05-04 02:46 -36.91406 88.74534 34312 ft 464 kts 262°
2026-05-04 02:47 -36.92332 88.66541 34314 ft 465 kts 262°
2026-05-04 02:47 -36.93277 88.58537 34311 ft 465 kts 261°
2026-05-04 02:48 -36.94229 88.50527 34308 ft 465 kts 262°
2026-05-04 02:48 -36.95160 88.42529 34310 ft 465 kts 262°
2026-05-04 02:49 -36.96084 88.34545 34302 ft 464 kts 262°
2026-05-04 02:49 -36.96999 88.26546 34301 ft 463 kts 262°
2026-05-04 02:50 -36.97894 88.18609 34305 ft 465 kts 262°
2026-05-04 02:50 -36.98661 88.11922 34292 ft 462 kts 262°
2026-05-04 02:51 -36.99700 88.02681 34291 ft 460 kts 263°
2026-05-04 02:51 -37.00747 87.96125 34293 ft 461 kts 258°
2026-05-04 02:52 -37.02223 87.88333 34289 ft 461 kts 257°
2026-05-04 02:52 -37.03747 87.80531 34285 ft 461 kts 257°
2026-05-04 02:53 -37.05274 87.72719 34286 ft 461 kts 257°
2026-05-04 02:53 -37.06764 87.64922 34278 ft 461 kts 257°
2026-05-04 02:54 -37.08252 87.57118 34276 ft 461 kts 257°
2026-05-04 02:54 -37.09750 87.49316 34273 ft 460 kts 257°
2026-05-04 02:55 -37.11947 87.37589 34265 ft 460 kts 257°
2026-05-04 02:56 -37.13419 87.29788 34263 ft 459 kts 258°
2026-05-04 02:56 -37.14883 87.21986 34269 ft 459 kts 258°
2026-05-04 02:57 -37.16339 87.14195 34266 ft 460 kts 257°
2026-05-04 02:57 -37.17793 87.06399 34257 ft 458 kts 258°
2026-05-04 02:58 -37.19235 86.98597 34256 ft 459 kts 258°
2026-05-04 02:58 -37.20663 86.90790 34251 ft 459 kts 258°
2026-05-04 02:59 -37.22082 86.83052 34252 ft 458 kts 258°
2026-05-04 02:59 -37.23495 86.75248 34250 ft 458 kts 258°
2026-05-04 03:00 -37.24926 86.67453 34243 ft 458 kts 258°
2026-05-04 03:00 -37.26346 86.59670 34243 ft 458 kts 258°
2026-05-04 03:01 -37.27759 86.51878 34243 ft 458 kts 258°
2026-05-04 03:01 -37.29189 86.44070 34235 ft 459 kts 258°
2026-05-04 03:02 -37.30595 86.36233 34235 ft 459 kts 258°
2026-05-04 03:02 -37.31990 86.28413 34228 ft 459 kts 258°
2026-05-04 03:03 -37.33384 86.20577 34227 ft 459 kts 258°
2026-05-04 03:03 -37.34771 86.12750 34225 ft 460 kts 258°
2026-05-04 03:04 -37.36149 86.04947 34225 ft 460 kts 258°
2026-05-04 03:04 -37.37529 85.97105 34225 ft 460 kts 259°
2026-05-04 03:05 -37.38905 85.89246 34222 ft 460 kts 259°
2026-05-04 03:05 -37.40275 85.81389 34223 ft 460 kts 259°
2026-05-04 03:06 -37.41638 85.73546 34221 ft 459 kts 259°
2026-05-04 03:06 -37.42993 85.65709 34216 ft 458 kts 259°
2026-05-04 03:07 -37.44344 85.57871 34214 ft 458 kts 259°
2026-05-04 03:07 -37.45690 85.50020 34211 ft 458 kts 259°
2026-05-04 03:08 -37.47028 85.42190 34215 ft 458 kts 259°
2026-05-04 03:08 -37.48361 85.34349 34209 ft 458 kts 259°
2026-05-04 03:09 -37.49680 85.26564 34199 ft 458 kts 259°
2026-05-04 03:09 -37.51004 85.18711 34204 ft 458 kts 259°
2026-05-04 03:10 -37.52318 85.10886 34201 ft 458 kts 259°
2026-05-04 03:10 -37.53632 85.03029 34201 ft 458 kts 260°
2026-05-04 03:11 -37.54938 84.95183 34195 ft 458 kts 260°
2026-05-04 03:11 -37.56242 84.87315 34195 ft 458 kts 260°
2026-05-04 03:12 -37.57540 84.79452 34195 ft 458 kts 260°
2026-05-04 03:12 -37.58833 84.71587 34192 ft 458 kts 260°
2026-05-04 03:13 -37.60110 84.63777 34190 ft 458 kts 260°
2026-05-04 03:13 -37.61390 84.55920 34187 ft 457 kts 260°
2026-05-04 03:14 -37.62666 84.48050 34181 ft 457 kts 260°
2026-05-04 03:14 -37.63934 84.40199 34182 ft 457 kts 260°
2026-05-04 03:15 -37.65199 84.32331 34176 ft 457 kts 261°
2026-05-04 03:15 -37.66455 84.24481 34180 ft 457 kts 261°
2026-05-04 03:16 -37.67707 84.16618 34174 ft 456 kts 261°
2026-05-04 03:16 -37.68946 84.08809 34174 ft 456 kts 261°
2026-05-04 03:17 -37.70185 84.00955 34171 ft 456 kts 261°
2026-05-04 03:17 -37.71419 83.93107 34171 ft 456 kts 261°
2026-05-04 03:18 -37.72649 83.85241 34167 ft 456 kts 261°
2026-05-04 03:18 -37.73876 83.77365 34166 ft 457 kts 261°
2026-05-04 03:19 -37.75097 83.69487 34162 ft 457 kts 261°
2026-05-04 03:19 -37.76311 83.61617 34163 ft 457 kts 262°
2026-05-04 03:20 -37.77523 83.53729 34163 ft 457 kts 262°
2026-05-04 03:20 -37.78727 83.45854 34164 ft 455 kts 262°
2026-05-04 03:21 -37.79913 83.38057 34157 ft 455 kts 262°
2026-05-04 03:21 -37.81104 83.30193 34157 ft 455 kts 262°
2026-05-04 03:22 -37.82286 83.22343 34154 ft 455 kts 262°
2026-05-04 03:22 -37.83467 83.14474 34167 ft 455 kts 262°
2026-05-04 03:23 -37.84640 83.06618 34165 ft 454 kts 262°
2026-05-04 03:23 -37.85806 82.98767 34152 ft 454 kts 262°
2026-05-04 03:24 -37.86968 82.90913 34151 ft 454 kts 262°
2026-05-04 03:24 -37.88126 82.83041 34146 ft 454 kts 262°
2026-05-04 03:25 -37.89277 82.75180 34153 ft 455 kts 262°
2026-05-04 03:25 -37.90426 82.67294 34155 ft 455 kts 262°
2026-05-04 03:26 -37.91564 82.59451 34152 ft 455 kts 263°
2026-05-04 03:26 -37.92701 82.51575 34153 ft 455 kts 263°
2026-05-04 03:27 -37.93837 82.43664 34150 ft 455 kts 263°
2026-05-04 03:27 -37.94964 82.35779 34155 ft 455 kts 263°
2026-05-04 03:28 -37.96084 82.27900 34148 ft 454 kts 263°
2026-05-04 03:28 -37.97200 82.20012 34148 ft 454 kts 263°
2026-05-04 03:29 -37.98310 82.12124 34147 ft 454 kts 263°
2026-05-04 03:29 -37.99414 82.04246 34147 ft 454 kts 263°
2026-05-04 03:30 -38.00463 81.96348 34148 ft 453 kts 266°
2026-05-04 03:30 -38.01034 81.88419 34148 ft 452 kts 269°
2026-05-04 03:31 -38.01493 81.80480 34145 ft 452 kts 268°
2026-05-04 03:31 -38.02017 81.72517 34148 ft 452 kts 268°
2026-05-04 03:32 -38.02578 81.64626 34155 ft 452 kts 268°
2026-05-04 03:32 -38.03148 81.56688 34146 ft 451 kts 268°
2026-05-04 03:33 -38.03709 81.48762 34147 ft 451 kts 268°
2026-05-04 03:33 -38.04262 81.40830 34146 ft 451 kts 268°
2026-05-04 03:34 -38.04809 81.32912 34146 ft 451 kts 268°
2026-05-04 03:34 -38.05351 81.24986 34150 ft 451 kts 268°
2026-05-04 03:35 -38.05888 81.17051 34143 ft 450 kts 268°
2026-05-04 03:35 -38.06419 81.09130 34143 ft 451 kts 268°
2026-05-04 03:36 -38.06945 81.01206 34143 ft 451 kts 268°
2026-05-04 03:36 -38.07465 80.93281 34144 ft 450 kts 269°
2026-05-04 03:37 -38.07893 80.86697 34140 ft 450 kts 269°
2026-05-04 03:37 -38.08404 80.78768 34143 ft 451 kts 269°
2026-05-04 03:38 -38.08991 80.69550 34142 ft 451 kts 269°
2026-05-04 03:38 -38.09409 80.62905 34140 ft 450 kts 269°
2026-05-04 03:39 -38.09903 80.54990 34138 ft 450 kts 269°
2026-05-04 03:39 -38.10392 80.47062 34143 ft 449 kts 269°
2026-05-04 03:40 -38.10872 80.39201 34137 ft 449 kts 269°
2026-05-04 03:40 -38.11349 80.31293 34135 ft 449 kts 269°
2026-05-04 03:41 -38.11820 80.23398 34125 ft 449 kts 269°
2026-05-04 03:41 -38.12286 80.15493 34145 ft 449 kts 269°
2026-05-04 03:42 -38.12746 80.07607 34122 ft 448 kts 269°
2026-05-04 03:42 -38.13202 79.99696 34133 ft 448 kts 269°
2026-05-04 03:43 -38.13651 79.91799 34124 ft 448 kts 269°
2026-05-04 03:43 -38.14093 79.83949 34129 ft 448 kts 269°
2026-05-04 03:44 -38.14529 79.76057 34130 ft 449 kts 269°
2026-05-04 03:44 -38.14958 79.68105 34123 ft 452 kts 269°
2026-05-04 03:45 -38.15396 79.60137 34124 ft 452 kts 269°
2026-05-04 03:45 -38.15827 79.52168 34129 ft 452 kts 269°
2026-05-04 03:46 -38.16249 79.44200 34123 ft 452 kts 269°
2026-05-04 03:46 -38.16665 79.36224 34130 ft 453 kts 269°
2026-05-04 03:47 -38.17077 79.28216 34120 ft 454 kts 269°
2026-05-04 03:47 -38.17483 79.20238 34119 ft 453 kts 269°
2026-05-04 03:48 -38.17885 79.12226 34115 ft 453 kts 269°
2026-05-04 03:48 -38.18280 79.04236 34121 ft 453 kts 269°
2026-05-04 03:49 -38.18669 78.96264 34112 ft 453 kts 269°
2026-05-04 03:49 -38.19054 78.88272 34110 ft 453 kts 269°
2026-05-04 03:50 -38.19432 78.80286 34108 ft 453 kts 269°
2026-05-04 03:50 -38.19806 78.72283 34108 ft 453 kts 270°
2026-05-04 03:51 -38.20174 78.64298 34110 ft 453 kts 270°
2026-05-04 03:51 -38.20537 78.56285 34108 ft 454 kts 270°
2026-05-04 03:52 -38.20893 78.48319 34103 ft 454 kts 270°
2026-05-04 03:52 -38.21246 78.40303 34105 ft 454 kts 270°
2026-05-04 03:53 -38.21593 78.32289 34107 ft 454 kts 270°
2026-05-04 03:53 -38.21935 78.24272 34099 ft 454 kts 270°
2026-05-04 03:54 -38.22271 78.16250 34102 ft 454 kts 270°
2026-05-04 03:54 -38.22602 78.08234 34100 ft 454 kts 270°
2026-05-04 03:55 -38.22927 78.00232 34092 ft 454 kts 270°
2026-05-04 03:55 -38.23247 77.92207 34094 ft 454 kts 270°
2026-05-04 03:56 -38.23562 77.84175 34094 ft 455 kts 270°
2026-05-04 03:56 -38.23871 77.76140 34089 ft 455 kts 270°
2026-05-04 03:57 -38.24176 77.68088 34099 ft 455 kts 270°
2026-05-04 03:57 -38.24474 77.60073 34086 ft 453 kts 270°
2026-05-04 03:58 -38.24909 77.48112 34084 ft 451 kts 270°
2026-05-04 03:58 -38.25192 77.40135 34084 ft 451 kts 270°
2026-05-04 03:59 -38.25469 77.32156 34078 ft 451 kts 270°
2026-05-04 03:59 -38.25740 77.24196 34078 ft 451 kts 270°
2026-05-04 04:00 -38.26007 77.16215 34077 ft 451 kts 271°
2026-05-04 04:00 -38.26268 77.08250 34074 ft 451 kts 271°
2026-05-04 04:01 -38.26522 77.00333 34073 ft 451 kts 271°
2026-05-04 04:01 -38.26773 76.92320 34067 ft 451 kts 271°
2026-05-04 04:02 -38.27017 76.84382 34071 ft 451 kts 271°
2026-05-04 04:02 -38.27257 76.76416 34061 ft 450 kts 271°
2026-05-04 04:03 -38.27490 76.68456 34058 ft 450 kts 271°
2026-05-04 04:03 -38.27718 76.60491 34059 ft 450 kts 271°
2026-05-04 04:04 -38.27941 76.52528 34058 ft 450 kts 271°
2026-05-04 04:04 -38.28159 76.44572 34056 ft 448 kts 271°
2026-05-04 04:05 -38.28371 76.36652 34053 ft 447 kts 271°
2026-05-04 04:05 -38.28575 76.28749 34047 ft 447 kts 272°
2026-05-04 04:06 -38.28775 76.20833 34045 ft 447 kts 272°
2026-05-04 04:06 -38.28969 76.12933 34052 ft 447 kts 271°
2026-05-04 04:07 -38.29158 76.05073 34040 ft 447 kts 271°
2026-05-04 04:07 -38.29342 75.97154 34043 ft 447 kts 271°
2026-05-04 04:08 -38.29521 75.89239 34037 ft 447 kts 271°
2026-05-04 04:08 -38.29695 75.81315 34036 ft 447 kts 271°
2026-05-04 04:09 -38.29862 75.73400 34031 ft 447 kts 270°
2026-05-04 04:09 -38.30026 75.65472 34029 ft 447 kts 270°
2026-05-04 04:10 -38.30184 75.57561 34020 ft 447 kts 271°
2026-05-04 04:10 -38.30336 75.49643 34021 ft 447 kts 271°
2026-05-04 04:11 -38.30483 75.41727 34024 ft 447 kts 270°
2026-05-04 04:11 -38.30625 75.33815 34014 ft 446 kts 270°
2026-05-04 04:12 -38.30761 75.25910 34010 ft 446 kts 270°
2026-05-04 04:12 -38.30892 75.18016 34005 ft 446 kts 270°
2026-05-04 04:13 -38.31017 75.10112 34005 ft 446 kts 271°
2026-05-04 04:13 -38.31138 75.02202 34003 ft 446 kts 270°
2026-05-04 04:14 -38.31158 74.94367 34001 ft 445 kts 273°
2026-05-04 04:14 -38.30894 74.86476 34000 ft 445 kts 274°
2026-05-04 04:15 -38.30606 74.78598 34001 ft 445 kts 274°
2026-05-04 04:15 -38.30356 74.70721 33996 ft 445 kts 274°
2026-05-04 04:16 -38.30125 74.62849 33988 ft 445 kts 274°
2026-05-04 04:16 -38.29893 74.54973 33987 ft 445 kts 274°
2026-05-04 04:17 -38.29654 74.47098 33985 ft 445 kts 274°
2026-05-04 04:17 -38.29408 74.39212 33985 ft 445 kts 274°
2026-05-04 04:18 -38.29157 74.31339 33987 ft 445 kts 274°
2026-05-04 04:18 -38.28902 74.23515 33969 ft 444 kts 274°
2026-05-04 04:19 -38.28641 74.15662 33976 ft 444 kts 274°
2026-05-04 04:19 -38.28375 74.07809 33977 ft 444 kts 274°
2026-05-04 04:20 -38.28103 73.99947 33964 ft 444 kts 274°
2026-05-04 04:20 -38.27827 73.92096 33961 ft 443 kts 274°
2026-05-04 04:21 -38.27546 73.84277 33959 ft 442 kts 274°
2026-05-04 04:21 -38.27259 73.76457 33950 ft 442 kts 274°
2026-05-04 04:22 -38.26968 73.68627 33951 ft 442 kts 274°
2026-05-04 04:22 -38.26671 73.60806 33948 ft 442 kts 275°
2026-05-04 04:23 -38.26371 73.53006 33945 ft 441 kts 275°
2026-05-04 04:23 -38.26117 73.46530 33948 ft 441 kts 275°
2026-05-04 04:24 -38.25806 73.38724 33941 ft 441 kts 275°
2026-05-04 04:24 -38.25491 73.30922 33933 ft 441 kts 275°
2026-05-04 04:25 -38.25170 73.23128 33937 ft 441 kts 275°
2026-05-04 04:25 -38.24844 73.15340 33932 ft 440 kts 275°
2026-05-04 04:26 -38.24516 73.07613 33931 ft 440 kts 275°
2026-05-04 04:26 -38.24179 72.99788 33917 ft 440 kts 275°
2026-05-04 04:27 -38.23839 72.92010 33925 ft 440 kts 276°
2026-05-04 04:27 -38.23494 72.84243 33915 ft 439 kts 276°
2026-05-04 04:28 -38.23145 72.76535 33919 ft 439 kts 276°
2026-05-04 04:28 -38.22788 72.68728 33915 ft 439 kts 276°
2026-05-04 04:29 -38.22430 72.61016 33916 ft 439 kts 276°
2026-05-04 04:29 -38.22066 72.53261 33911 ft 439 kts 276°
2026-05-04 04:30 -38.21695 72.45509 33911 ft 439 kts 276°
2026-05-04 04:30 -38.21319 72.37753 33909 ft 439 kts 276°
2026-05-04 04:31 -38.20938 72.29994 33908 ft 439 kts 276°
2026-05-04 04:31 -38.20552 72.22234 33907 ft 439 kts 277°
2026-05-04 04:32 -38.20165 72.14540 33901 ft 439 kts 277°
2026-05-04 04:32 -38.19765 72.06728 33900 ft 440 kts 277°
2026-05-04 04:33 -38.19366 71.99011 33900 ft 440 kts 277°
2026-05-04 04:33 -38.18959 71.91251 33897 ft 440 kts 277°
2026-05-04 04:34 -38.18548 71.83485 33893 ft 438 kts 277°
2026-05-04 04:34 -38.18133 71.75758 33887 ft 438 kts 277°
2026-05-04 04:35 -38.17712 71.68031 33881 ft 438 kts 277°
2026-05-04 04:35 -38.17286 71.60302 33883 ft 438 kts 277°
2026-05-04 04:36 -38.16848 71.52638 33888 ft 436 kts 279°
2026-05-04 04:36 -38.16400 71.44976 33883 ft 434 kts 278°
2026-05-04 04:37 -38.15551 71.29706 33879 ft 433 kts 279°
2026-05-04 04:38 -38.15108 71.22074 33878 ft 433 kts 279°
2026-05-04 04:38 -38.14657 71.14442 33872 ft 433 kts 279°
2026-05-04 04:39 -38.14202 71.06823 33872 ft 433 kts 279°
2026-05-04 04:39 -38.13743 70.99196 33867 ft 433 kts 279°
2026-05-04 04:40 -38.13281 70.91627 33871 ft 432 kts 279°
2026-05-04 04:40 -38.12812 70.84009 33862 ft 432 kts 279°
2026-05-04 04:41 -38.12335 70.76343 33868 ft 432 kts 279°
2026-05-04 04:41 -38.11856 70.68733 33860 ft 432 kts 279°
2026-05-04 04:42 -38.11373 70.61128 33855 ft 432 kts 279°
2026-05-04 04:42 -38.10887 70.53561 33873 ft 432 kts 279°
2026-05-04 04:43 -38.10393 70.45953 33848 ft 433 kts 279°
2026-05-04 04:43 -38.09894 70.38333 33848 ft 433 kts 279°
2026-05-04 04:44 -38.09391 70.30725 33845 ft 433 kts 279°
2026-05-04 04:44 -38.08881 70.23094 33846 ft 433 kts 279°
2026-05-04 04:45 -38.08366 70.15469 33842 ft 434 kts 280°
2026-05-04 04:47 -38.06523 69.88739 33829 ft 434 kts 281°
2026-05-04 04:47 -38.05989 69.81155 33829 ft 435 kts 281°
2026-05-04 04:48 -38.05445 69.73511 33823 ft 435 kts 281°
2026-05-04 04:49 -38.04064 69.54385 33811 ft 435 kts 281°
2026-05-04 04:49 -38.03502 69.46738 33804 ft 435 kts 282°
2026-05-04 04:50 -38.02937 69.39112 33802 ft 434 kts 282°
2026-05-04 04:50 -38.02368 69.31482 33801 ft 434 kts 282°
2026-05-04 04:51 -38.01791 69.23832 33796 ft 434 kts 282°
2026-05-04 04:51 -38.01213 69.16213 33797 ft 434 kts 282°
2026-05-04 04:52 -38.00636 69.08666 33786 ft 432 kts 282°
2026-05-04 04:52 -38.00048 69.01074 33792 ft 432 kts 282°
2026-05-04 04:53 -37.99455 68.93492 33774 ft 432 kts 282°
2026-05-04 04:53 -37.98859 68.85908 33819 ft 432 kts 282°
2026-05-04 04:54 -37.98256 68.78325 33780 ft 431 kts 282°
2026-05-04 04:54 -37.97653 68.70769 33776 ft 430 kts 282°
2026-05-04 04:55 -37.97046 68.63228 33786 ft 430 kts 282°
2026-05-04 04:55 -37.96432 68.55674 33774 ft 430 kts 283°
2026-05-04 04:56 -37.95814 68.48124 33778 ft 430 kts 282°
2026-05-04 04:56 -37.95196 68.40633 33773 ft 429 kts 282°
2026-05-04 04:57 -37.94569 68.33105 33775 ft 429 kts 282°
2026-05-04 04:57 -37.93938 68.25585 33772 ft 429 kts 282°
2026-05-04 04:58 -37.93302 68.18068 33792 ft 429 kts 282°
2026-05-04 04:58 -37.92663 68.10553 33775 ft 429 kts 282°
2026-05-04 04:59 -37.92018 68.03048 33788 ft 429 kts 282°
2026-05-04 04:59 -37.91369 67.95539 33769 ft 429 kts 282°
2026-05-04 05:00 -37.90715 67.88038 33766 ft 428 kts 282°
2026-05-04 05:01 -37.89730 67.76831 33756 ft 428 kts 282°
2026-05-04 05:01 -37.89064 67.69325 33754 ft 428 kts 282°
2026-05-04 05:02 -37.88394 67.61835 33756 ft 428 kts 282°
2026-05-04 05:02 -37.87719 67.54339 33774 ft 428 kts 282°
2026-05-04 05:03 -37.87042 67.46859 33768 ft 427 kts 282°
2026-05-04 05:04 -37.85673 67.31933 33764 ft 427 kts 282°
2026-05-04 05:04 -37.84987 67.24525 33762 ft 427 kts 282°
2026-05-04 05:06 -37.82172 66.94660 33760 ft 427 kts 282°
2026-05-04 05:07 -37.81457 66.87204 33764 ft 427 kts 282°
2026-05-04 05:07 -37.80735 66.79731 33757 ft 428 kts 282°
2026-05-04 05:09 -37.77433 66.46140 33760 ft 428 kts 282°
2026-05-04 05:10 -37.76807 66.39879 33755 ft 428 kts 282°
2026-05-04 05:10 -37.76056 66.32425 33758 ft 428 kts 282°
2026-05-04 05:11 -37.75300 66.24955 33780 ft 428 kts 282°
2026-05-04 05:11 -37.74545 66.17552 33756 ft 426 kts 281°
2026-05-04 05:12 -37.73785 66.10139 33759 ft 426 kts 281°
2026-05-04 05:12 -37.73018 66.02711 33765 ft 426 kts 281°
2026-05-04 05:13 -37.72247 65.95294 33763 ft 426 kts 281°
2026-05-04 05:13 -37.71471 65.87877 33765 ft 426 kts 281°
2026-05-04 05:14 -37.70690 65.80453 33756 ft 427 kts 281°
2026-05-04 05:14 -37.69903 65.73016 33751 ft 427 kts 281°
2026-05-04 05:15 -37.69113 65.65594 33760 ft 427 kts 281°
2026-05-04 05:15 -37.68316 65.58168 33768 ft 426 kts 281°
2026-05-04 05:16 -37.67522 65.50795 33765 ft 426 kts 281°
2026-05-04 05:16 -37.66719 65.43389 33767 ft 426 kts 281°
2026-05-04 05:17 -37.65912 65.35990 33771 ft 426 kts 281°
2026-05-04 05:17 -37.65099 65.28578 33772 ft 426 kts 281°
2026-05-04 05:18 -37.64281 65.21168 33761 ft 426 kts 281°
2026-05-04 05:18 -37.63459 65.13765 33760 ft 426 kts 281°
2026-05-04 05:19 -37.62632 65.06355 33766 ft 426 kts 281°
2026-05-04 05:19 -37.61802 64.98962 33766 ft 426 kts 281°
2026-05-04 05:20 -37.60969 64.91598 33769 ft 426 kts 280°
2026-05-04 05:20 -37.60123 64.84157 33762 ft 426 kts 280°
2026-05-04 05:21 -37.59284 64.76811 33763 ft 426 kts 280°
2026-05-04 05:21 -37.58434 64.69423 33763 ft 426 kts 280°
2026-05-04 05:22 -37.57580 64.62031 33763 ft 426 kts 281°
2026-05-04 05:22 -37.56720 64.54638 33766 ft 426 kts 281°
2026-05-04 05:23 -37.55857 64.47254 33768 ft 426 kts 281°
2026-05-04 05:23 -37.54990 64.39881 33769 ft 426 kts 281°
2026-05-04 05:24 -37.54124 64.32553 33773 ft 426 kts 280°
2026-05-04 05:24 -37.53246 64.25168 33771 ft 425 kts 280°
2026-05-04 05:25 -37.52366 64.17803 33774 ft 425 kts 280°
2026-05-04 05:25 -37.51482 64.10438 33784 ft 426 kts 281°
2026-05-04 05:26 -37.50589 64.03053 33776 ft 427 kts 280°
2026-05-04 05:26 -37.49689 63.95648 33777 ft 427 kts 280°
2026-05-04 05:28 -37.46052 63.66093 33782 ft 427 kts 280°
2026-05-04 05:29 -37.45131 63.58709 33785 ft 427 kts 280°
2026-05-04 05:29 -37.44207 63.51335 33785 ft 427 kts 280°
2026-05-04 05:31 -37.40462 63.21846 33787 ft 427 kts 279°
2026-05-04 05:32 -37.39512 63.14461 33788 ft 427 kts 279°
2026-05-04 05:33 -37.38081 63.03405 33793 ft 427 kts 279°
2026-05-04 05:33 -37.37127 62.96081 33799 ft 427 kts 279°
2026-05-04 05:34 -37.36164 62.88723 33799 ft 427 kts 279°
2026-05-04 05:34 -37.35194 62.81358 33799 ft 427 kts 279°
2026-05-04 05:35 -37.34220 62.73990 33801 ft 427 kts 279°
2026-05-04 05:35 -37.33243 62.66639 33801 ft 427 kts 279°
2026-05-04 05:36 -37.32261 62.59280 33807 ft 427 kts 279°
2026-05-04 05:36 -37.31273 62.51916 33812 ft 427 kts 278°
2026-05-04 05:37 -37.30278 62.44548 33811 ft 427 kts 278°
2026-05-04 05:37 -37.29289 62.37243 33815 ft 427 kts 278°
2026-05-04 05:38 -37.27786 62.26208 33821 ft 427 kts 279°
2026-05-04 05:38 -37.26777 62.18855 33819 ft 427 kts 278°
2026-05-04 05:39 -37.25258 62.07847 33826 ft 427 kts 278°
2026-05-04 05:40 -37.23730 61.96844 33829 ft 427 kts 278°
2026-05-04 05:40 -37.22703 61.89495 33821 ft 426 kts 278°
2026-05-04 05:41 -37.21675 61.82172 33826 ft 426 kts 278°
2026-05-04 05:41 -37.20643 61.74857 33826 ft 426 kts 278°
2026-05-04 05:42 -37.19606 61.67538 33832 ft 426 kts 278°
2026-05-04 05:42 -37.18564 61.60220 33831 ft 426 kts 278°
2026-05-04 05:43 -37.17522 61.52935 33834 ft 426 kts 278°
2026-05-04 05:45 -37.13293 61.23701 33848 ft 426 kts 278°
2026-05-04 05:47 -37.08999 60.94543 33862 ft 425 kts 277°
2026-05-04 05:47 -37.07916 60.87267 33862 ft 424 kts 277°
2026-05-04 05:48 -37.06830 60.80003 33865 ft 425 kts 277°
2026-05-04 05:48 -37.05745 60.72785 33864 ft 424 kts 277°
2026-05-04 05:49 -37.04648 60.65520 33872 ft 423 kts 277°
2026-05-04 05:49 -37.03554 60.58296 33878 ft 423 kts 277°
2026-05-04 05:51 -36.99117 60.29317 33886 ft 424 kts 277°
2026-05-04 05:52 -36.97996 60.22070 33892 ft 424 kts 277°
2026-05-04 05:52 -36.96878 60.14883 33889 ft 424 kts 276°
2026-05-04 05:54 -36.92354 59.86076 33905 ft 421 kts 276°
2026-05-04 05:55 -36.91216 59.78906 33918 ft 420 kts 276°
2026-05-04 05:55 -36.90078 59.71762 33911 ft 419 kts 276°
2026-05-04 05:56 -36.89130 59.65831 33920 ft 419 kts 276°
2026-05-04 05:56 -36.87983 59.58680 33900 ft 419 kts 275°
2026-05-04 05:57 -36.86833 59.51547 33919 ft 418 kts 275°
2026-05-04 05:57 -36.85682 59.44433 33928 ft 417 kts 275°
2026-05-04 05:58 -36.84527 59.37325 33934 ft 418 kts 275°
2026-05-04 05:58 -36.83375 59.30263 33919 ft 417 kts 275°
2026-05-04 05:59 -36.82214 59.23183 33936 ft 415 kts 275°
2026-05-04 05:59 -36.81056 59.16135 33936 ft 415 kts 275°
2026-05-04 06:00 -36.79897 59.09086 33947 ft 415 kts 275°
2026-05-04 06:00 -36.78729 59.02032 33923 ft 414 kts 274°
2026-05-04 06:01 -36.77522 58.95034 33948 ft 412 kts 275°
2026-05-04 06:03 -36.72877 58.67103 33959 ft 412 kts 275°
2026-05-04 06:05 -36.67512 58.35688 33971 ft 410 kts 274°
2026-05-04 06:06 -36.66317 58.28741 33971 ft 410 kts 274°
2026-05-04 06:06 -36.65115 58.21787 33978 ft 410 kts 274°
2026-05-04 06:07 -36.63912 58.14855 33974 ft 409 kts 274°
2026-05-04 06:07 -36.62707 58.07946 33981 ft 408 kts 274°
2026-05-04 06:08 -36.61502 58.01050 33984 ft 408 kts 274°
2026-05-04 06:08 -36.60290 57.94140 33986 ft 408 kts 274°
2026-05-04 06:09 -36.59076 57.87251 33988 ft 407 kts 274°
2026-05-04 06:11 -36.54197 57.59793 33991 ft 407 kts 274°
2026-05-04 06:13 -36.49251 57.32349 34013 ft 406 kts 274°
2026-05-04 06:14 -36.44883 57.08420 34003 ft 406 kts 274°
2026-05-04 06:15 -36.43626 57.01590 34032 ft 405 kts 274°
2026-05-04 06:15 -36.42310 56.94771 34021 ft 408 kts 275°
2026-05-04 06:16 -36.40856 56.88008 34021 ft 408 kts 276°
2026-05-04 06:16 -36.39370 56.81158 34020 ft 408 kts 275°
2026-05-04 06:17 -36.37922 56.74396 34023 ft 407 kts 275°
2026-05-04 06:17 -36.36479 56.67617 34026 ft 407 kts 275°
2026-05-04 06:18 -36.35037 56.60845 34034 ft 407 kts 275°
2026-05-04 06:20 -36.29216 56.33765 34045 ft 405 kts 275°
2026-05-04 06:21 -36.25556 56.16911 34048 ft 405 kts 275°
2026-05-04 06:22 -36.24089 56.10185 34048 ft 405 kts 275°
2026-05-04 06:25 -36.13697 55.63113 34069 ft 406 kts 276°
2026-05-04 06:26 -36.12194 55.56388 34075 ft 406 kts 276°
2026-05-04 06:26 -36.10686 55.49652 34057 ft 406 kts 276°
2026-05-04 06:27 -36.06893 55.32802 34078 ft 407 kts 276°
2026-05-04 06:28 -36.05366 55.26057 34039 ft 407 kts 276°
2026-05-04 06:28 -36.03836 55.19310 34083 ft 408 kts 276°
2026-05-04 06:29 -36.02301 55.12566 34088 ft 408 kts 276°
2026-05-04 06:29 -36.00768 55.05849 34092 ft 408 kts 276°
2026-05-04 06:30 -35.99213 54.99059 34072 ft 408 kts 276°
2026-05-04 06:30 -35.97672 54.92344 34095 ft 409 kts 276°
2026-05-04 06:31 -35.96121 54.85603 34097 ft 409 kts 276°
2026-05-04 06:31 -35.94561 54.78844 34100 ft 409 kts 276°
2026-05-04 06:33 -35.88279 54.51818 34111 ft 410 kts 276°
2026-05-04 06:34 -35.86693 54.45044 34105 ft 411 kts 276°
2026-05-04 06:34 -35.85113 54.38308 34110 ft 412 kts 276°
2026-05-04 06:36 -35.78690 54.11133 34118 ft 414 kts 276°
2026-05-04 06:37 -35.77069 54.04326 34121 ft 414 kts 276°
2026-05-04 06:37 -35.75443 53.97521 34110 ft 414 kts 276°
2026-05-04 06:38 -35.73811 53.90695 34121 ft 415 kts 276°
2026-05-04 06:40 -35.67249 53.63463 34128 ft 417 kts 276°
2026-05-04 06:40 -35.65588 53.56623 34131 ft 417 kts 276°
2026-05-04 06:41 -35.63926 53.49793 34131 ft 417 kts 276°
2026-05-04 06:41 -35.62259 53.42964 34135 ft 417 kts 277°
2026-05-04 06:42 -35.60590 53.36141 34135 ft 417 kts 277°
2026-05-04 06:44 -35.54148 53.09979 34172 ft 418 kts 277°
2026-05-04 06:44 -35.52455 53.03157 34138 ft 417 kts 277°
2026-05-04 06:45 -35.50765 52.96358 34140 ft 417 kts 277°
2026-05-04 06:45 -35.49067 52.89538 34146 ft 418 kts 277°
2026-05-04 06:46 -35.47362 52.82712 34148 ft 418 kts 277°
2026-05-04 06:46 -35.45657 52.75909 34127 ft 418 kts 278°
2026-05-04 06:48 -35.38781 52.48644 34153 ft 419 kts 278°
2026-05-04 06:50 -35.31831 52.21376 34159 ft 421 kts 279°
2026-05-04 06:51 -35.30074 52.14528 34163 ft 422 kts 279°
2026-05-04 06:51 -35.28311 52.07678 34162 ft 422 kts 279°
2026-05-04 06:52 -35.26543 52.00828 34162 ft 422 kts 279°
2026-05-04 06:52 -35.24773 51.93981 34165 ft 423 kts 279°
2026-05-04 06:53 -35.22995 51.87124 34168 ft 423 kts 279°
2026-05-04 06:53 -35.21210 51.80258 34143 ft 423 kts 280°
2026-05-04 06:54 -35.19422 51.73399 34171 ft 424 kts 280°
2026-05-04 06:54 -35.17625 51.66522 34170 ft 425 kts 280°
2026-05-04 06:55 -35.15832 51.59680 34171 ft 425 kts 280°
2026-05-04 06:55 -35.14027 51.52805 34167 ft 425 kts 280°
2026-05-04 06:57 -35.06743 51.25257 34187 ft 427 kts 281°
2026-05-04 06:58 -35.04909 51.18370 34176 ft 425 kts 281°
2026-05-04 06:58 -35.03079 51.11511 34175 ft 425 kts 281°
2026-05-04 06:59 -35.01252 51.04677 34178 ft 425 kts 281°
2026-05-04 06:59 -34.99404 50.97816 34179 ft 426 kts 281°
2026-05-04 07:01 -34.91104 50.70658 34183 ft 428 kts 283°
2026-05-04 07:02 -34.89034 50.63863 34177 ft 428 kts 283°
2026-05-04 07:02 -34.86962 50.57080 34192 ft 428 kts 283°
2026-05-04 07:03 -34.84880 50.50279 34193 ft 428 kts 283°
2026-05-04 07:03 -34.82794 50.43486 34193 ft 428 kts 283°
2026-05-04 07:04 -34.80715 50.36731 34183 ft 428 kts 283°
2026-05-04 07:04 -34.78610 50.29906 34184 ft 428 kts 283°
2026-05-04 07:05 -34.76525 50.23164 34183 ft 428 kts 283°
2026-05-04 07:05 -34.74425 50.16387 34180 ft 428 kts 283°
2026-05-04 07:06 -34.71272 50.06244 34189 ft 428 kts 283°
2026-05-04 07:07 -34.69164 49.99477 34189 ft 428 kts 283°
2026-05-04 07:09 -34.60718 49.72529 34184 ft 426 kts 283°
2026-05-04 07:09 -34.58600 49.65812 34192 ft 425 kts 283°
2026-05-04 07:10 -34.56483 49.59112 34192 ft 425 kts 283°
2026-05-04 07:12 -34.48006 49.32426 34192 ft 424 kts 283°
2026-05-04 07:12 -34.45880 49.25769 34191 ft 423 kts 283°
2026-05-04 07:13 -34.43748 49.19113 34196 ft 423 kts 283°
2026-05-04 07:13 -34.41618 49.12472 34195 ft 423 kts 283°
2026-05-04 07:14 -34.36279 48.95896 34195 ft 422 kts 284°
2026-05-04 07:15 -34.34135 48.89265 34183 ft 422 kts 284°
2026-05-04 07:15 -34.31992 48.82651 34200 ft 422 kts 284°
2026-05-04 07:16 -34.29857 48.76074 34180 ft 422 kts 284°
2026-05-04 07:16 -34.27706 48.69464 34180 ft 423 kts 284°
2026-05-04 07:17 -34.25550 48.62852 34186 ft 423 kts 284°
2026-05-04 07:17 -34.23389 48.56241 34187 ft 422 kts 284°
2026-05-04 07:18 -34.21226 48.49638 34195 ft 422 kts 284°
2026-05-04 07:18 -34.19060 48.43038 34173 ft 422 kts 284°
2026-05-04 07:19 -34.16888 48.36433 34192 ft 423 kts 284°
2026-05-04 07:19 -34.14713 48.29837 34191 ft 423 kts 284°
2026-05-04 07:20 -34.12545 48.23274 34192 ft 423 kts 284°
2026-05-04 07:20 -34.10349 48.16638 34193 ft 423 kts 285°
2026-05-04 07:22 -34.01584 47.90304 34192 ft 424 kts 285°
2026-05-04 07:23 -33.99373 47.83695 34192 ft 425 kts 285°
2026-05-04 07:23 -33.97158 47.77090 34192 ft 425 kts 285°
2026-05-04 07:24 -33.94938 47.70480 34195 ft 426 kts 285°
2026-05-04 07:24 -33.92711 47.63868 34195 ft 426 kts 285°
2026-05-04 07:26 -33.83779 47.37480 34181 ft 427 kts 286°
2026-05-04 07:27 -33.81524 47.30853 34193 ft 428 kts 286°
2026-05-04 07:27 -33.79267 47.24233 34196 ft 428 kts 286°
2026-05-04 07:28 -33.77006 47.17618 34179 ft 428 kts 287°
2026-05-04 07:28 -33.75121 47.12111 34197 ft 428 kts 287°
2026-05-04 07:29 -33.72856 47.05506 34195 ft 428 kts 287°
2026-05-04 07:29 -33.70579 46.98883 34194 ft 428 kts 287°
2026-05-04 07:30 -33.68298 46.92260 34195 ft 429 kts 287°
2026-05-04 07:30 -33.66011 46.85632 34184 ft 430 kts 287°
2026-05-04 07:31 -33.63731 46.79040 34183 ft 430 kts 287°
2026-05-04 07:33 -33.54531 46.52580 34196 ft 429 kts 287°
2026-05-04 07:33 -33.52226 46.45982 34200 ft 429 kts 287°
2026-05-04 07:34 -33.49915 46.39382 34190 ft 429 kts 288°
2026-05-04 07:34 -33.47601 46.32786 34196 ft 430 kts 288°
2026-05-04 07:35 -33.45277 46.26177 34198 ft 430 kts 288°
2026-05-04 07:35 -33.42950 46.19573 34199 ft 430 kts 288°
2026-05-04 07:36 -33.40619 46.12970 34194 ft 431 kts 288°
2026-05-04 07:38 -33.31254 45.86577 34195 ft 432 kts 288°
2026-05-04 07:38 -33.28898 45.79971 34195 ft 432 kts 288°
2026-05-04 07:39 -33.26538 45.73367 34194 ft 432 kts 289°
2026-05-04 07:39 -33.24169 45.66753 34197 ft 433 kts 289°
2026-05-04 07:40 -33.21801 45.60153 34197 ft 433 kts 289°
2026-05-04 07:40 -33.19425 45.53545 34194 ft 433 kts 289°
2026-05-04 07:41 -33.17048 45.46946 34198 ft 433 kts 289°
2026-05-04 07:41 -33.14665 45.40345 34199 ft 433 kts 289°
2026-05-04 07:42 -33.12283 45.33760 34197 ft 433 kts 289°
2026-05-04 07:42 -33.09892 45.27162 34200 ft 433 kts 289°
2026-05-04 07:43 -33.07502 45.20580 34202 ft 433 kts 289°
2026-05-04 07:43 -33.05121 45.14038 34204 ft 433 kts 289°
2026-05-04 07:44 -33.02723 45.07460 34200 ft 433 kts 289°
2026-05-04 07:44 -33.00317 45.00873 34197 ft 433 kts 289°
2026-05-04 07:45 -32.97897 44.94309 34206 ft 433 kts 290°
2026-05-04 07:45 -32.95447 44.87759 34200 ft 433 kts 290°
2026-05-04 07:46 -32.93008 44.81252 34186 ft 433 kts 290°
2026-05-04 07:46 -32.90558 44.74712 34205 ft 433 kts 290°
2026-05-04 07:47 -32.88101 44.68158 34204 ft 433 kts 290°
2026-05-04 07:49 -32.78228 44.41959 34206 ft 434 kts 290°
2026-05-04 07:49 -32.75752 44.35421 34196 ft 434 kts 290°
2026-05-04 07:50 -32.73269 44.28875 34205 ft 435 kts 290°
2026-05-04 07:50 -32.70779 44.22324 34203 ft 435 kts 290°
2026-05-04 07:51 -32.68289 44.15787 34206 ft 435 kts 290°
2026-05-04 07:51 -32.65804 44.09275 34201 ft 436 kts 291°
2026-05-04 07:52 -32.63284 44.02684 34206 ft 436 kts 291°
2026-05-04 07:52 -32.60791 43.96176 34206 ft 436 kts 291°
2026-05-04 07:54 -32.50700 43.69959 34205 ft 437 kts 291°
2026-05-04 07:55 -32.48165 43.63405 34196 ft 437 kts 291°
2026-05-04 07:55 -32.45631 43.56863 34206 ft 438 kts 291°
2026-05-04 07:56 -32.43088 43.50315 34205 ft 438 kts 291°
2026-05-04 07:56 -32.40541 43.43766 34208 ft 438 kts 292°
2026-05-04 07:57 -32.37991 43.37222 34205 ft 438 kts 292°
2026-05-04 07:57 -32.35455 43.30726 34208 ft 438 kts 292°
2026-05-04 07:58 -32.32895 43.24181 34205 ft 438 kts 292°
2026-05-04 07:58 -32.30321 43.17614 34206 ft 438 kts 292°
2026-05-04 07:59 -32.27771 43.11119 34207 ft 438 kts 292°
2026-05-04 07:59 -32.25200 43.04581 34209 ft 438 kts 292°
2026-05-04 08:00 -32.22629 42.98058 34210 ft 438 kts 292°
2026-05-04 08:02 -32.12311 42.72000 34205 ft 439 kts 292°
2026-05-04 08:02 -32.09720 42.65486 34202 ft 439 kts 293°
2026-05-04 08:03 -32.07122 42.58965 34207 ft 440 kts 293°
2026-05-04 08:03 -32.04511 42.52428 34205 ft 440 kts 293°
2026-05-04 08:04 -32.01902 42.45904 34208 ft 440 kts 293°
2026-05-04 08:04 -31.99288 42.39381 34205 ft 441 kts 293°
2026-05-04 08:05 -31.96668 42.32856 34206 ft 441 kts 293°
2026-05-04 08:05 -31.94040 42.26323 34205 ft 441 kts 293°
2026-05-04 08:06 -31.91407 42.19789 34206 ft 441 kts 293°
2026-05-04 08:06 -31.88776 42.13270 34205 ft 442 kts 293°
2026-05-04 08:08 -31.78197 41.87186 34203 ft 443 kts 294°
2026-05-04 08:11 -31.66179 41.57782 34200 ft 444 kts 294°
2026-05-04 08:11 -31.62151 41.47980 34200 ft 444 kts 294°
2026-05-04 08:12 -31.59462 41.41453 34200 ft 444 kts 294°
2026-05-04 08:12 -31.56765 41.34917 34199 ft 445 kts 294°
2026-05-04 08:13 -31.54068 41.28392 34200 ft 445 kts 294°
2026-05-04 08:13 -31.51823 41.22971 34200 ft 445 kts 294°
2026-05-04 08:14 -31.48677 41.15386 34200 ft 445 kts 294°
2026-05-04 08:16 -31.38251 40.90365 34202 ft 446 kts 295°
2026-05-04 08:16 -31.35526 40.83855 34197 ft 446 kts 295°
2026-05-04 08:17 -31.32776 40.77296 34197 ft 446 kts 295°
2026-05-04 08:17 -31.30057 40.70821 34197 ft 446 kts 295°
2026-05-04 08:19 -31.19063 40.44761 34190 ft 447 kts 295°
2026-05-04 08:20 -31.16303 40.38249 34201 ft 447 kts 295°
2026-05-04 08:20 -31.13559 40.31784 34192 ft 448 kts 295°
2026-05-04 08:21 -31.10789 40.25271 34192 ft 448 kts 295°
2026-05-04 08:21 -31.08019 40.18767 34192 ft 448 kts 295°
2026-05-04 08:22 -31.05240 40.12256 34191 ft 448 kts 295°
2026-05-04 08:24 -30.93792 39.86425 34190 ft 449 kts 297°
2026-05-04 08:24 -30.90813 39.80027 34191 ft 449 kts 297°
2026-05-04 08:25 -30.87871 39.73668 34190 ft 449 kts 297°
2026-05-04 08:25 -30.84909 39.67260 34189 ft 449 kts 297°
2026-05-04 08:27 -30.73019 39.41646 34189 ft 450 kts 297°
2026-05-04 08:28 -30.70036 39.35247 34182 ft 450 kts 297°
2026-05-04 08:28 -30.67049 39.28853 34176 ft 450 kts 297°
2026-05-04 08:29 -30.64059 39.22460 34182 ft 451 kts 297°
2026-05-04 08:31 -30.52068 38.96933 34175 ft 451 kts 297°
2026-05-04 08:33 -30.39984 38.71377 34172 ft 452 kts 298°
2026-05-04 08:35 -30.27872 38.45931 34164 ft 452 kts 298°
2026-05-04 08:35 -30.24802 38.39509 34165 ft 453 kts 298°
2026-05-04 08:37 -30.14133 38.17268 34168 ft 453 kts 298°
2026-05-04 08:38 -30.11076 38.10917 34164 ft 451 kts 298°
2026-05-04 08:38 -30.08047 38.04636 34162 ft 450 kts 298°
2026-05-04 08:40 -29.95838 37.79417 34157 ft 450 kts 298°
2026-05-04 08:41 -29.92773 37.73113 34156 ft 450 kts 298°
2026-05-04 08:41 -29.89705 37.66812 34143 ft 450 kts 298°
2026-05-04 08:42 -29.86633 37.60512 34152 ft 451 kts 298°
2026-05-04 08:42 -29.83562 37.54224 34151 ft 451 kts 298°
2026-05-04 08:43 -29.80485 37.47934 34153 ft 451 kts 298°
2026-05-04 08:43 -29.77405 37.41647 34148 ft 450 kts 298°
2026-05-04 08:44 -29.74327 37.35375 34149 ft 451 kts 298°
2026-05-04 08:46 -29.61973 37.10300 34143 ft 451 kts 298°
2026-05-04 08:46 -29.58870 37.04026 34142 ft 451 kts 298°
2026-05-04 08:47 -29.55767 36.97762 34145 ft 451 kts 298°
2026-05-04 08:47 -29.52657 36.91493 34140 ft 451 kts 298°
2026-05-04 08:48 -29.49549 36.85240 34140 ft 451 kts 298°
2026-05-04 08:48 -29.46434 36.78980 34134 ft 452 kts 298°
2026-05-04 08:49 -29.43308 36.72710 34131 ft 452 kts 298°
2026-05-04 08:50 -29.32378 36.50860 34137 ft 452 kts 298°
2026-05-04 08:51 -29.29240 36.44609 34123 ft 452 kts 298°
2026-05-04 08:51 -29.26098 36.38358 34183 ft 454 kts 298°
2026-05-04 08:52 -29.24522 36.35226 34343 ft 455 kts 298°
2026-05-04 08:52 -29.22941 36.32088 34557 ft 455 kts 298°
2026-05-04 08:52 -29.21362 36.28956 34785 ft 454 kts 298°
2026-05-04 08:52 -29.19784 36.25829 34998 ft 453 kts 298°
2026-05-04 08:53 -29.18208 36.22706 35209 ft 453 kts 298°
2026-05-04 08:54 -29.07210 36.00989 36748 ft 448 kts 298°
2026-05-04 08:55 -29.05648 35.97914 36935 ft 448 kts 298°
2026-05-04 08:55 -29.04080 35.94830 37114 ft 448 kts 298°
2026-05-04 08:55 -29.02517 35.91756 37284 ft 448 kts 298°
2026-05-04 08:55 -29.00945 35.88670 37486 ft 447 kts 298°
2026-05-04 08:57 -28.90067 35.67368 38109 ft 439 kts 297°
2026-05-04 09:01 -28.68930 35.26281 38109 ft 439 kts 298°
2026-05-04 09:01 -28.65823 35.20277 38092 ft 439 kts 298°
2026-05-04 09:02 -28.62724 35.14295 38087 ft 439 kts 298°
2026-05-04 09:02 -28.59621 35.08316 38091 ft 439 kts 298°
2026-05-04 09:03 -28.56512 35.02333 38085 ft 439 kts 298°
2026-05-04 09:03 -28.53400 34.96351 38092 ft 439 kts 298°
2026-05-04 09:04 -28.50291 34.90388 38083 ft 438 kts 298°
2026-05-04 09:04 -28.47180 34.84426 38092 ft 438 kts 298°
2026-05-04 09:05 -28.44085 34.78504 38081 ft 438 kts 298°
2026-05-04 09:05 -28.40961 34.72534 38087 ft 439 kts 298°
2026-05-04 09:06 -28.37829 34.66578 38082 ft 438 kts 298°
2026-05-04 09:08 -28.24973 34.43055 38073 ft 439 kts 299°
2026-05-04 09:08 -28.21756 34.37167 38071 ft 438 kts 299°
2026-05-04 09:09 -28.18541 34.31293 38069 ft 438 kts 299°
2026-05-04 09:09 -28.15345 34.25461 38071 ft 438 kts 299°
2026-05-04 09:10 -28.12124 34.19593 38057 ft 438 kts 299°
2026-05-04 09:10 -28.08879 34.13690 38067 ft 438 kts 299°
2026-05-04 09:11 -28.05677 34.07872 38062 ft 438 kts 299°
2026-05-04 09:11 -28.02452 34.02021 38064 ft 438 kts 299°
2026-05-04 09:12 -27.99221 33.96167 38059 ft 438 kts 299°
2026-05-04 09:14 -27.86273 33.72787 38051 ft 439 kts 299°
2026-05-04 09:14 -27.83030 33.66952 38055 ft 438 kts 299°
2026-05-04 09:15 -27.79791 33.61132 38046 ft 437 kts 299°
2026-05-04 09:15 -27.76551 33.55315 38051 ft 437 kts 300°
2026-05-04 09:17 -27.61939 33.29188 38053 ft 438 kts 300°
2026-05-04 09:18 -27.58682 33.23385 38053 ft 438 kts 300°
2026-05-04 09:18 -27.55436 33.17611 38048 ft 438 kts 300°
2026-05-04 09:19 -27.52166 33.11801 38031 ft 438 kts 300°
2026-05-04 09:19 -27.48905 33.06015 38048 ft 438 kts 300°
2026-05-04 09:20 -27.45635 33.00220 38038 ft 438 kts 300°
2026-05-04 09:20 -27.42360 32.94423 38042 ft 439 kts 300°
2026-05-04 09:21 -27.39077 32.88621 38045 ft 439 kts 300°
2026-05-04 09:21 -27.35798 32.82833 38041 ft 439 kts 300°
2026-05-04 09:22 -27.32520 32.77055 38041 ft 439 kts 300°
2026-05-04 09:22 -27.29235 32.71272 38026 ft 438 kts 300°
2026-05-04 09:23 -27.25965 32.65523 38041 ft 439 kts 300°
2026-05-04 09:23 -27.22673 32.59744 38045 ft 439 kts 300°
2026-05-04 09:25 -27.09513 32.36713 38058 ft 438 kts 300°
2026-05-04 09:26 -27.06211 32.30954 38061 ft 438 kts 300°
2026-05-04 09:26 -27.02915 32.25212 38060 ft 438 kts 300°
2026-05-04 09:27 -26.99635 32.19446 38058 ft 437 kts 297°
2026-05-04 09:27 -26.97332 32.13213 38064 ft 432 kts 282°
2026-05-04 09:28 -26.96153 32.06618 38077 ft 432 kts 279°
2026-05-04 09:28 -26.95163 31.99990 38072 ft 432 kts 278°
2026-05-04 09:29 -26.94180 31.93328 38077 ft 432 kts 278°
2026-05-04 09:29 -26.93175 31.86691 38076 ft 432 kts 278°
2026-05-04 09:30 -26.92153 31.80043 38083 ft 432 kts 279°
2026-05-04 09:30 -26.91128 31.73414 38099 ft 431 kts 279°
2026-05-04 09:31 -26.90101 31.66794 38097 ft 431 kts 279°
2026-05-04 09:31 -26.89072 31.60173 38100 ft 431 kts 279°
2026-05-04 09:32 -26.88042 31.53561 38104 ft 431 kts 279°
2026-05-04 09:34 -26.83900 31.27200 38116 ft 431 kts 279°
2026-05-04 09:34 -26.82851 31.20582 38128 ft 430 kts 279°
2026-05-04 09:35 -26.81805 31.13996 38131 ft 429 kts 279°
2026-05-04 09:35 -26.80754 31.07398 38134 ft 430 kts 279°
2026-05-04 09:37 -26.76536 30.81131 38143 ft 429 kts 279°
2026-05-04 09:38 -26.75476 30.74555 38135 ft 429 kts 279°
2026-05-04 09:38 -26.74407 30.67984 38159 ft 429 kts 279°
2026-05-04 09:39 -26.73334 30.61432 38163 ft 429 kts 279°
2026-05-04 09:39 -26.72255 30.54853 38166 ft 429 kts 279°
2026-05-04 09:40 -26.71180 30.48299 38184 ft 429 kts 279°
2026-05-04 09:40 -26.70098 30.41731 38183 ft 429 kts 279°
2026-05-04 09:42 -26.65765 30.15613 38221 ft 427 kts 279°
2026-05-04 09:43 -26.64674 30.09079 38214 ft 427 kts 279°
2026-05-04 09:43 -26.63583 30.02571 38232 ft 426 kts 279°
2026-05-04 09:44 -26.62489 29.96064 38236 ft 425 kts 279°
2026-05-04 09:46 -26.58097 29.70113 35810 ft 434 kts 280°
2026-05-04 09:46 -26.57546 29.66781 35051 ft 439 kts 278°
2026-05-04 09:46 -26.57386 29.63361 34286 ft 444 kts 267°
2026-05-04 09:47 -26.57622 29.61042 33709 ft 447 kts 262°
2026-05-04 09:47 -26.58147 29.57599 32845 ft 452 kts 261°
2026-05-04 09:49 -26.62202 29.32883 27154 ft 461 kts 262°
2026-05-04 09:49 -26.62776 29.29375 26540 ft 457 kts 262°
2026-05-04 09:49 -26.63344 29.25898 25928 ft 452 kts 262°
2026-05-04 09:51 -26.66576 29.06025 23394 ft 405 kts 262°
2026-05-04 09:51 -26.67065 29.02999 23126 ft 395 kts 262°
2026-05-04 09:51 -26.67547 29.00010 22858 ft 386 kts 262°
2026-05-04 09:51 -26.68018 28.97092 22590 ft 377 kts 262°
2026-05-04 09:52 -26.68477 28.94239 22368 ft 368 kts 262°
2026-05-04 09:52 -26.68924 28.91456 22143 ft 360 kts 263°
2026-05-04 09:52 -26.69343 28.88733 21911 ft 351 kts 265°
2026-05-04 09:52 -26.69317 28.86059 21683 ft 340 kts 283°
2026-05-04 09:53 -26.68641 28.83569 21500 ft 330 kts 291°
2026-05-04 09:53 -26.67833 28.81190 21267 ft 325 kts 292°
2026-05-04 09:53 -26.67026 28.78843 20958 ft 322 kts 292°
2026-05-04 09:53 -26.66230 28.76514 20607 ft 320 kts 292°
2026-05-04 09:54 -26.65437 28.74183 20282 ft 319 kts 292°
2026-05-04 09:54 -26.64651 28.71868 19962 ft 318 kts 292°
2026-05-04 09:54 -26.63871 28.69566 19638 ft 317 kts 292°
2026-05-04 09:54 -26.63093 28.67271 19332 ft 316 kts 292°
2026-05-04 09:55 -26.62315 28.64978 19024 ft 315 kts 292°
2026-05-04 09:55 -26.61541 28.62692 18699 ft 314 kts 292°
2026-05-04 09:55 -26.60770 28.60412 18390 ft 313 kts 293°
2026-05-04 09:55 -26.59999 28.58144 18035 ft 312 kts 293°
2026-05-04 09:56 -26.59240 28.55912 17699 ft 311 kts 293°
2026-05-04 09:56 -26.58473 28.53657 17230 ft 307 kts 293°
2026-05-04 09:56 -26.57721 28.51444 16439 ft 304 kts 293°
2026-05-04 09:56 -26.56968 28.49232 15580 ft 304 kts 293°
2026-05-04 09:57 -26.56216 28.47026 14804 ft 303 kts 292°
2026-05-04 09:57 -26.55480 28.44860 14368 ft 291 kts 293°
2026-05-04 09:57 -26.54780 28.42802 14069 ft 276 kts 293°
2026-05-04 09:57 -26.54112 28.40840 13623 ft 267 kts 293°
2026-05-04 09:58 -26.53465 28.38946 13341 ft 254 kts 293°
2026-05-04 09:58 -26.52823 28.37086 13217 ft 259 kts 292°
2026-05-04 09:58 -26.52185 28.35216 13135 ft 254 kts 292°
2026-05-04 10:00 -26.43903 28.25488 11082 ft 246 kts 316°
2026-05-04 10:00 -26.42646 28.24204 10856 ft 245 kts 316°
2026-05-04 10:02 -26.32685 28.19741 8764 ft 245 kts 15°
2026-05-04 10:04 -26.23479 28.22633 6970 ft 145 kts 12°
2026-05-04 10:04 -26.22495 28.22938 6798 ft 147 kts 11°
2026-05-04 10:04 -26.21522 28.23240 6616 ft 145 kts 10°
2026-05-04 10:04 -26.20536 28.23552 6487 ft 151 kts 12°
2026-05-04 10:05 -26.19516 28.23881 6214 ft 151 kts 12°
2026-05-04 10:05 -26.18522 28.24181 5936 ft 145 kts
2026-05-04 10:05 -26.17532 28.24484 5786 ft 150 kts
2026-05-04 10:05 -26.16524 28.24808 5579 ft 149 kts 11°
2026-05-04 10:06 -26.15568 28.25084 5525 ft 132 kts 14°
2026-05-04 10:06 -26.14928 28.25288 5513 ft 51 kts 17°
2026-05-04 10:06 -26.14711 28.25328 5508 ft 28 kts 357°
2026-05-04 10:08 -26.14291 28.25014 5535 ft 19 kts 316°
2026-05-04 10:08 -26.14159 28.24871 5535 ft 30 kts 315°
2026-05-04 10:08 -26.14017 28.24716 5535 ft 28 kts 316°
2026-05-04 10:08 -26.13883 28.24571 5536 ft 26 kts 316°
2026-05-04 10:09 -26.13766 28.24444 5548 ft 21 kts 315°
2026-05-04 10:09 -26.13666 28.24335 5549 ft 20 kts 315°
2026-05-04 10:09 -26.13571 28.24233 5549 ft 19 kts 316°
2026-05-04 10:09 -26.13482 28.24135 5552 ft 16 kts 315°
2026-05-04 10:10 -26.13414 28.24062 5558 ft 11 kts 315°
2026-05-04 10:10 -26.13360 28.24003 5556 ft 11 kts 315°
2026-05-04 10:10 -26.13294 28.23931 5556 ft 17 kts 316°
2026-05-04 10:10 -26.13196 28.23827 5555 ft 21 kts 316°
2026-05-04 10:11 -26.13126 28.23718 5552 ft 10 kts 270°
2026-05-04 10:11 -26.13131 28.23643 5553 ft 10 kts 276°
2026-05-04 10:11 -26.13123 28.23560 5553 ft 12 kts 277°
2026-05-04 10:11 -26.13114 28.23477 5553 ft 11 kts 277°
2026-05-04 10:12 -26.13078 28.23418 5555 ft 9 kts 322°
2026-05-04 10:12 -26.13033 28.23379 5564 ft 5 kts 322°
2026-05-04 10:12 -26.13018 28.23365 5549 ft 2 kts 321°
2026-05-04 10:12 -26.13017 28.23364 5549 ft 0 kts 321°